GFSFLT1_925_spd_000.txt.gz
Wind_Speed
16 14 13 12 10 9 8 7 7 7 7 7 6 6 5 4 5 5 4 4 4 5 5 5 6 7 8 10 10 10 10 11
14 16 16 13 12 11 10 10 9 8 7 6 6 5 5 3 2 3 2 1 2 4 5 7 7 7 7 9 10 11 12 13
14 17 18 19 18 16 13 12 11 10 9 7 7 6 5 4 4 5 5 4 4 4 6 8 9 11 11 10 11 12 11 11
10 16 21 21 21 18 17 15 14 13 11 8 7 8 8 8 8 7 7 8 7 7 8 10 11 12 13 14 14 14 15 14
6 10 17 21 22 20 19 18 17 16 14 12 12 11 11 9 9 10 9 8 9 9 11 12 13 14 15 17 17 18 19 19
7 8 11 17 20 21 20 20 19 18 15 15 13 14 13 12 11 11 10 9 8 10 11 13 15 17 19 20 20 21 22 24
8 9 10 15 20 21 20 21 22 20 17 17 18 17 16 13 11 9 9 8 10 11 11 13 15 18 20 22 24 25 26 27
11 10 11 15 19 22 22 21 22 21 19 18 16 14 12 10 7 7 7 9 10 13 15 17 19 21 23 24 26 28 29 31
12 11 12 14 18 21 22 21 21 21 19 16 13 11 9 6 4 5 7 9 12 15 18 21 23 24 26 27 29 31 31 32
13 12 13 16 19 22 23 22 20 19 15 13 11 9 7 5 5 6 9 12 15 18 20 22 23 24 25 26 29 30 31 32
15 14 17 17 18 19 20 20 19 17 16 14 11 9 7 6 6 9 12 15 17 20 22 23 25 26 27 28 29 30 32 33
17 17 20 18 17 14 17 18 17 17 15 12 11 9 7 6 8 11 15 17 20 22 23 24 26 28 27 28 29 31 31 33
16 18 21 16 14 15 16 15 15 13 12 11 10 6 5 8 12 15 17 20 21 23 24 26 28 28 28 28 30 31 31 33
19 21 19 15 15 14 15 14 12 10 9 9 7 8 9 11 14 18 20 21 22 24 25 27 28 28 29 29 31 32 33 35
22 23 15 15 14 13 13 11 10 9 9 9 10 9 10 13 16 19 20 21 23 25 26 28 29 30 30 30 31 33 34 33
23 21 17 14 14 12 10 8 7 8 9 12 10 9 11 15 18 21 22 23 25 26 28 29 29 30 30 29 29 31 31 32
23 21 17 13 15 13 6 6 8 12 12 11 7 8 13 17 19 22 24 25 26 27 29 30 31 31 30 28 30 30 31 32
22 21 15 11 12 8 8 10 11 11 11 8 7 11 15 18 21 23 25 27 29 30 30 29 31 32 31 31 31 31 31 31
18 15 11 8 12 12 12 8 10 10 7 5 9 13 17 20 22 24 26 27 28 30 30 30 32 33 33 33 33 33 33 34

GFSFLT1_925_spd_003.txt.gz
Wind_Speed
16 16 13 13 12 12 12 12 11 10 9 8 8 8 7 7 6 5 4 3 2 1 2 4 5 5 6 7 9 10 11 12
11 13 15 15 15 14 14 15 13 13 12 11 11 11 10 9 9 7 5 4 4 3 4 5 6 8 7 8 9 11 11 10
6 13 17 19 18 18 18 18 16 16 15 14 14 13 12 12 10 9 9 8 7 7 6 8 8 11 11 11 10 14 14 13
4 9 15 18 20 20 20 19 18 18 17 15 13 12 12 13 14 14 17 13 12 11 10 11 11 12 14 14 15 15 17 17
2 6 10 15 19 18 20 20 21 20 19 19 18 19 18 18 16 13 12 10 11 13 13 13 13 15 16 17 19 19 20 21
7 9 12 12 15 19 21 22 23 23 21 22 20 20 20 17 15 13 12 12 12 11 12 13 14 15 18 20 23 22 24 24
10 14 11 13 11 16 19 21 24 25 25 25 24 23 18 16 12 10 10 12 10 11 10 11 13 16 18 22 23 25 26 26
11 12 15 15 13 15 18 22 26 28 27 27 24 22 20 17 13 10 9 7 10 10 11 13 15 18 20 22 25 27 27 28
14 14 16 16 18 17 20 24 27 28 28 28 24 21 17 14 11 8 7 10 10 11 13 15 18 20 22 24 26 27 28 29
13 15 18 17 17 23 25 26 29 28 26 24 21 18 16 14 9 9 8 9 11 14 15 17 20 22 23 24 26 28 28 29
14 13 15 18 23 27 23 27 27 24 23 17 16 16 14 12 9 7 9 10 13 16 19 21 23 23 24 26 26 28 29 29
14 16 22 26 28 25 24 23 19 18 17 13 15 15 12 7 6 8 10 12 16 19 22 24 24 25 26 27 29 31 31 31
14 18 28 28 29 22 21 17 16 14 12 14 14 13 8 7 8 12 13 16 19 22 24 26 27 28 28 30 32 32 32 32
18 17 22 27 30 18 19 13 13 11 13 13 12 10 8 14 14 14 16 19 22 24 26 27 29 30 30 31 32 33 33 33
21 20 18 31 29 23 17 12 12 13 13 11 11 11 13 13 13 15 18 20 23 25 26 28 29 30 31 31 32 32 33 33
21 17 19 32 27 22 13 12 13 11 10 11 14 15 14 14 14 17 20 22 23 25 27 29 29 29 30 29 29 31 32 31
22 19 23 26 24 20 12 13 10 15 14 13 13 12 12 14 16 19 21 23 24 26 27 29 29 29 29 30 29 31 30 31
19 19 23 23 23 14 13 12 13 13 11 11 11 10 12 15 18 21 22 24 25 27 28 28 29 30 30 28 29 31 30 30
15 21 25 17 19 15 11 11 10 9 13 10 9 11 13 17 19 22 23 24 25 26 27 27 29 29 30 31 31 31 30 32

GFSFLT1_925_spd_006.txt.gz
Wind_Speed
18 19 13 12 10 11 10 11 12 12 11 11 9 10 12 10 11 13 11 10 6 5 4 3 2 4 4 7 9 11 13 16
3 12 12 10 10 10 12 13 13 13 13 12 13 13 14 14 15 14 10 10 9 7 5 2 3 5 6 8 9 10 15 17
9 6 8 9 11 14 15 16 15 16 15 16 17 16 18 21 18 19 17 12 12 10 10 7 6 5 8 11 11 11 13 16
6 1 4 8 13 15 16 18 19 19 21 20 19 19 17 13 15 13 17 20 17 15 13 11 10 8 8 10 14 17 18 15
3 1 4 6 15 16 17 19 20 21 21 22 24 19 18 22 24 24 29 27 21 18 14 13 11 9 10 12 12 13 17 18
6 8 11 5 7 9 16 18 21 23 23 24 27 26 22 22 16 15 12 10 9 7 8 11 13 9 9 12 15 19 19 20
6 11 11 13 9 7 11 17 22 25 26 27 26 28 25 17 19 10 8 7 7 3 3 3 5 8 10 13 16 19 21 23
4 7 10 9 12 14 13 19 23 25 26 28 30 27 25 23 20 14 11 8 5 3 6 8 11 13 17 20 22 24 24 26
7 7 7 10 12 16 17 21 23 24 28 31 29 30 23 20 18 12 7 4 4 5 7 11 13 15 20 22 24 24 24 26
7 7 10 10 11 14 21 26 25 26 27 29 25 22 20 13 8 9 4 3 5 4 8 11 18 19 21 22 24 25 25 27
7 6 12 16 21 20 25 24 23 24 25 20 10 8 8 7 5 3 3 6 11 11 13 17 19 21 23 24 25 25 26 28
5 4 9 15 19 21 27 25 19 20 16 19 6 6 7 7 6 5 5 9 13 18 19 19 22 24 25 26 27 28 29 30
10 13 14 16 16 24 31 25 17 14 14 5 4 7 8 8 9 5 7 12 19 18 20 22 24 26 26 27 28 29 29 29
15 16 13 15 23 31 32 24 16 9 4 3 5 6 8 10 8 9 14 18 16 20 22 24 26 26 27 28 29 29 30 31
16 12 13 19 25 28 24 23 14 5 5 6 9 10 12 11 11 8 16 17 19 21 24 26 27 28 27 27 28 30 30 29
17 18 16 23 25 26 19 24 8 5 7 8 8 6 10 13 10 12 14 18 22 24 25 27 26 26 26 25 24 24 24 27
19 18 20 25 23 20 18 19 7 5 5 7 11 12 11 8 11 13 18 22 22 24 25 26 26 25 24 27 28 23 23 25
16 15 19 25 21 13 14 16 11 8 8 6 8 11 10 10 11 17 20 22 22 23 24 24 25 25 25 26 27 27 27 29
19 19 23 20 13 10 11 10 9 2 4 10 13 8 8 11 15 18 20 21 22 23 23 23 24 23 29 32 35 33 30 32

GFSFLT1_925_spd_009.txt.gz
Wind_Speed
24 19 21 17 13 11 9 10 10 10 12 12 10 10 12 13 18 16 15 12 10 9 8 9 4 5 7 4 5 5 8 14
14 15 19 15 11 9 8 8 9 12 14 11 14 13 16 16 18 16 21 17 15 13 11 8 9 7 4 1 5 7 11 11
14 13 10 9 9 7 8 13 15 16 18 20 20 19 22 24 25 22 24 20 19 17 14 14 11 9 9 8 6 5 8 12
6 8 7 10 11 14 16 17 17 20 23 24 22 23 26 19 15 24 24 25 24 22 18 14 13 12 9 8 8 11 15 9
5 4 2 5 13 16 16 17 18 18 21 28 29 29 26 30 31 24 22 25 27 25 21 18 13 10 7 6 3 4 11 14
7 5 8 7 2 2 11 15 17 19 20 21 29 32 34 30 22 24 15 15 17 24 18 11 7 5 7 7 6 9 13 17
5 4 3 5 5 2 5 12 17 21 23 25 29 29 35 35 25 21 15 12 12 13 14 11 9 6 3 10 15 20 23 27
3 3 2 1 2 5 6 10 17 22 27 31 34 36 37 36 37 25 18 16 13 9 3 2 8 10 12 18 23 29 31 28
5 2 3 6 7 10 12 16 21 24 28 21 23 31 38 39 37 21 15 15 12 8 6 7 7 12 16 22 27 31 31 31
4 4 9 8 10 11 14 19 25 27 27 19 20 21 23 23 15 16 17 14 11 3 4 9 13 19 18 25 25 30 31 32
6 7 6 9 13 15 18 23 31 27 20 16 11 5 8 13 16 18 16 11 7 2 9 20 19 18 21 26 30 30 30 31
7 9 12 13 14 19 24 30 29 26 19 12 5 8 10 12 13 11 4 1 4 9 13 14 19 23 27 28 30 30 30 31
7 13 18 17 19 24 25 30 29 23 11 4 9 10 10 9 8 7 4 3 2 8 14 16 23 24 26 27 29 30 32 31
8 11 16 18 19 23 25 30 22 22 7 9 11 9 8 9 9 4 4 3 8 11 19 21 22 25 26 29 31 32 33 32
8 11 15 15 20 25 25 20 23 17 8 10 9 8 8 5 2 3 4 11 14 15 18 24 25 26 28 28 28 30 29 24
10 12 10 21 25 25 16 18 19 8 4 6 10 9 6 6 7 5 6 11 17 21 22 23 27 24 25 25 22 23 23 25
14 14 19 20 22 15 11 10 11 8 7 7 8 10 7 7 5 9 13 17 21 19 22 21 23 25 21 19 20 27 29 28
15 14 17 20 16 9 11 15 13 7 3 5 8 9 3 7 11 11 15 15 17 19 21 24 25 17 20 27 31 31 29 29
10 15 20 10 12 17 21 18 6 4 6 6 2 4 10 4 8 11 14 14 17 23 25 19 20 26 28 32 30 30 30 33

GFSFLT1_925_spd_012.txt.gz
Wind_Speed
17 13 14 16 18 17 12 11 10 10 10 11 13 15 16 18 19 20 20 17 15 15 14 14 11 11 12 11 7 5 6 7
10 21 23 21 18 15 13 12 12 13 14 15 16 18 18 20 22 22 25 23 21 18 18 16 16 14 14 14 9 8 7 6
14 20 18 15 16 13 13 13 13 15 17 20 20 20 24 26 26 24 27 28 28 26 24 22 19 18 17 15 11 8 8 7
6 10 12 11 13 12 12 13 14 16 19 22 23 24 25 26 28 28 32 32 32 32 31 27 23 21 21 18 13 10 8 5
4 5 6 9 11 12 14 16 16 19 21 25 28 30 30 35 36 35 32 28 33 35 33 30 25 22 18 14 8 5 1 3
5 6 8 8 8 6 8 12 16 17 19 21 24 31 37 39 39 35 32 29 29 34 32 28 22 18 16 10 2 3 6 9
6 8 7 7 7 6 5 8 12 13 18 23 26 30 34 36 38 39 36 29 25 28 31 25 20 15 12 6 5 7 13 17
6 5 5 3 6 5 7 9 11 14 19 23 27 31 34 36 37 36 33 21 19 19 21 17 16 10 7 6 12 17 23 25
2 5 7 10 11 10 9 10 15 24 28 31 32 29 25 26 27 30 27 24 20 19 21 12 4 5 13 17 19 22 20 20
7 8 9 11 10 10 13 20 26 33 30 27 26 22 23 22 21 16 17 26 22 16 12 10 11 15 21 18 15 18 22 26
7 10 9 7 9 14 21 30 33 32 27 26 23 21 16 13 7 17 25 20 14 7 5 15 16 6 9 12 19 24 26 28
5 8 13 17 18 17 21 26 24 25 24 23 19 10 9 13 14 18 14 9 2 10 14 6 8 11 13 19 23 24 24 25
4 5 11 16 17 18 22 27 24 22 27 21 11 12 15 16 14 11 7 2 2 2 6 9 11 15 17 18 21 22 26 29
4 8 13 18 23 27 27 26 17 21 26 17 12 14 13 13 13 10 6 4 3 4 8 11 14 17 20 21 24 25 26 28
6 7 13 18 20 23 24 16 16 20 16 6 5 5 6 10 9 6 3 2 6 9 11 14 17 18 21 21 21 21 21 19
7 7 10 16 19 22 18 12 16 17 13 5 5 7 6 5 6 5 8 11 10 14 14 15 17 17 19 17 18 17 22 28
13 11 14 17 18 18 13 18 23 20 17 6 4 2 1 3 10 6 10 12 12 11 13 14 18 19 16 14 20 25 29 29
13 13 15 18 15 11 17 17 16 10 3 4 4 5 6 7 7 9 11 9 9 12 16 18 17 14 20 22 21 26 27 27
14 16 19 19 13 18 14 9 6 9 10 7 8 8 9 8 5 5 7 10 14 16 16 16 20 20 19 25 25 27 28 30

GFSFLT1_925_spd_015.txt.gz
Wind_Speed
11 14 20 19 19 19 16 14 14 14 13 13 14 15 17 17 19 22 21 20 20 19 19 19 19 18 17 16 15 12 10 9
2 10 15 17 17 18 17 16 15 17 17 16 16 20 20 22 22 23 24 25 25 24 24 23 24 24 23 21 19 16 15 12
10 15 16 17 18 17 16 17 17 17 19 17 15 18 20 24 26 27 29 30 30 32 31 31 30 30 27 26 25 21 17 14
5 10 14 12 15 16 17 17 17 17 19 19 19 21 23 28 30 32 34 34 35 37 39 38 36 35 35 33 30 26 21 16
4 6 9 12 13 14 13 15 17 18 18 21 23 26 27 33 35 37 38 38 37 41 44 45 43 38 35 33 29 25 18 13
8 10 11 11 9 8 9 12 13 13 13 16 20 24 29 34 36 38 41 42 38 39 41 46 44 35 28 23 18 16 12 9
4 4 3 3 4 6 8 7 6 8 14 21 26 29 32 34 36 36 38 35 32 32 36 36 31 21 18 14 10 8 4 3
5 7 4 5 9 7 6 9 14 21 27 31 33 34 35 34 31 30 31 31 26 20 18 19 22 21 14 5 5 7 9 8
4 8 9 8 7 9 13 18 25 30 30 31 28 28 30 29 28 27 25 19 8 16 24 20 13 8 8 15 18 23 22 21
8 9 12 12 15 18 20 21 28 28 27 25 28 30 31 30 26 20 14 8 17 19 14 10 10 11 15 12 13 11 12 16
6 9 10 16 19 18 21 22 27 24 24 25 30 33 30 26 21 13 8 18 19 10 3 7 16 19 12 7 7 12 16 18
4 8 16 21 23 21 23 22 25 22 21 25 30 32 25 17 13 11 17 16 6 4 10 16 8 8 9 14 15 15 16 17
6 12 18 21 24 25 25 22 24 19 22 26 28 24 16 10 12 13 12 8 5 8 5 3 6 11 13 13 15 16 18 21
7 11 14 18 22 24 23 25 19 19 25 29 27 19 12 11 9 8 6 2 4 4 6 8 10 10 12 14 16 17 18 19
9 7 14 22 21 21 21 18 15 21 25 24 23 15 10 7 3 2 4 5 10 13 12 11 11 11 13 14 17 19 17 17
8 9 11 19 21 21 21 15 20 23 22 21 11 1 4 8 4 9 14 13 9 14 12 11 11 14 18 18 16 15 19 24
8 11 16 17 19 22 19 19 22 19 13 8 3 2 2 7 9 5 6 10 14 10 9 14 17 15 12 13 19 20 23 27
14 14 18 22 23 19 17 22 17 10 9 8 7 8 10 11 14 15 12 10 8 11 12 13 13 16 17 16 18 24 25 27
14 21 21 22 17 20 20 18 13 14 14 11 10 10 9 10 8 8 7 8 10 11 13 15 13 16 20 24 23 24 25 27

GFSFLT1_925_spd_021.txt.gz
Wind_Speed
5 9 10 13 14 15 19 18 15 14 13 12 12 12 12 12 14 17 20 22 23 23 26 27 26 25 25 26 25 22 21 18
5 7 9 9 12 15 16 16 15 13 12 11 11 11 13 14 15 19 20 23 26 27 29 30 30 30 32 31 28 24 21 21
7 6 1 5 6 9 9 6 7 8 10 11 11 17 20 24 24 25 25 24 25 24 27 29 30 27 32 33 30 23 21 21
7 13 13 12 11 8 6 7 8 9 10 11 12 12 13 14 19 25 27 28 29 29 29 27 27 27 28 31 32 29 28 22
11 14 15 14 14 12 11 14 16 16 16 15 16 12 14 15 18 20 26 26 25 25 25 25 25 24 25 27 28 30 28 28
9 11 13 16 20 20 18 15 15 18 20 19 15 12 12 15 19 23 25 27 28 27 26 25 25 23 22 22 23 22 25 27
13 13 15 15 16 17 16 17 16 18 19 17 18 21 23 24 30 30 31 30 29 28 24 21 18 16 14 8 6 6 8 9
10 12 11 13 15 17 16 17 13 21 24 27 25 22 23 22 26 28 29 27 23 22 17 12 5 4 9 10 8 7 5 4
5 6 8 10 12 16 15 18 25 26 23 22 19 19 22 25 26 30 28 25 20 13 3 4 7 9 8 5 7 6 3 3
8 11 12 12 16 18 22 22 19 17 18 17 16 19 25 24 26 27 26 23 11 3 4 5 3 2 5 6 7 9 2 4
12 17 18 17 13 18 17 16 15 16 17 14 15 20 20 23 26 24 20 11 2 3 2 5 5 6 5 5 2 1 4 6
10 14 15 15 11 14 14 15 14 14 15 13 19 21 22 23 20 17 11 1 3 6 6 6 8 8 8 8 7 6 6 6
10 11 10 11 14 17 18 20 18 18 19 18 21 21 20 16 9 6 4 5 8 7 9 10 11 10 9 9 9 6 7 9
9 12 14 15 18 20 21 22 19 18 16 18 16 13 11 7 5 5 6 5 9 14 16 12 12 10 10 10 10 11 12 13
8 10 14 16 18 19 21 21 19 18 18 16 11 8 4 5 4 6 7 7 8 7 10 12 11 10 11 11 13 13 14 15
10 10 14 16 19 22 24 24 22 17 15 12 8 5 6 6 5 6 7 8 9 12 16 13 12 13 9 13 15 16 18 19
9 11 14 17 21 22 22 20 17 15 16 13 9 9 9 11 11 9 11 13 12 11 9 11 12 12 15 16 18 19 21 21
9 9 14 16 17 17 17 17 13 14 12 9 8 10 8 10 10 11 11 10 9 10 11 12 13 12 17 18 18 18 18 19
7 10 14 17 19 18 16 14 15 9 11 10 11 12 11 10 11 12 12 10 11 12 13 11 13 16 19 20 19 18 18 20

GFSFLT1_925_spd_024.txt.gz
Wind_Speed
8 7 8 9 9 10 10 9 7 5 5 5 6 6 7 7 8 8 10 11 11 13 16 20 19 20 21 21 22 21 21 21
5 6 6 3 3 2 1 3 1 2 4 5 6 6 8 9 10 12 11 11 12 13 16 19 20 22 24 25 25 25 25 24
15 15 14 12 10 8 6 4 4 3 3 3 5 8 9 10 8 12 13 15 17 18 19 20 21 23 24 25 25 27 28 26
12 15 15 14 14 11 9 9 10 10 8 6 6 6 9 11 17 19 20 21 19 19 19 20 21 21 23 24 24 26 28 28
11 13 16 16 16 15 14 12 10 10 9 7 9 9 12 13 15 18 21 21 21 21 21 21 22 21 23 24 24 24 25 28
10 13 14 14 13 12 10 9 9 10 10 8 8 11 14 14 13 16 20 20 21 22 21 20 20 20 20 20 21 22 23 25
13 12 11 11 10 10 10 11 10 10 10 11 11 8 11 14 17 20 22 25 25 24 22 20 16 14 12 11 9 8 11 13
9 9 10 11 11 11 11 12 13 12 10 11 9 10 13 16 19 22 27 29 28 26 21 16 11 8 6 3 4 5 6 5
6 8 9 9 9 9 12 13 14 13 13 14 15 15 16 18 20 23 26 27 24 20 12 8 6 4 3 1 2 4 5 3
7 10 9 11 11 10 13 16 18 17 16 16 15 14 15 18 21 22 24 22 18 12 8 7 6 6 6 5 6 4 2 1
9 11 11 13 13 12 14 15 16 16 15 17 15 15 17 18 20 21 18 15 9 6 6 8 8 9 9 9 8 7 6 6
8 8 9 11 12 13 12 14 16 16 18 17 15 17 17 17 18 16 12 6 6 7 8 9 12 10 8 8 8 10 11 11
6 8 10 13 14 13 14 16 17 18 18 18 19 18 17 15 14 11 8 4 4 5 9 12 9 11 11 12 12 11 11 13
8 10 13 14 13 15 17 19 21 21 21 19 19 18 15 13 11 7 5 7 9 10 9 11 13 11 11 10 12 14 15 17
9 9 13 12 12 15 19 19 18 18 18 18 19 14 11 10 8 8 10 10 11 12 13 14 15 13 13 12 14 16 18 18
8 9 10 11 14 16 16 16 17 16 17 19 17 11 11 8 12 11 12 14 16 15 15 13 12 13 13 13 16 18 20 20
6 8 10 12 14 16 16 16 15 16 17 15 10 8 7 7 10 11 13 14 15 14 14 15 16 16 14 15 17 19 20 21
8 10 10 13 15 17 16 16 15 17 14 12 9 10 10 9 10 13 15 16 16 15 15 16 16 15 15 18 18 20 21 20
10 10 13 14 16 16 16 16 14 15 13 12 10 11 10 11 13 14 16 15 16 16 16 15 16 17 17 16 20 20 20 21

GFSFLT1_925_spd_027.txt.gz
Wind_Speed
10 5 4 3 4 5 6 7 5 5 5 5 6 6 7 6 8 8 8 11 10 11 14 16 17 19 21 22 23 25 25 26
14 8 6 3 4 1 4 2 4 3 4 5 6 7 7 9 9 8 9 9 12 15 15 17 20 22 22 23 24 25 26 26
14 15 15 14 11 9 8 6 6 4 3 4 3 5 6 7 5 9 11 11 14 17 16 18 19 21 21 22 23 25 26 26
12 15 15 15 14 12 11 9 8 8 6 4 5 6 7 12 12 17 16 15 17 16 18 18 20 22 23 23 23 24 25 27
11 13 14 13 12 10 9 7 6 6 8 6 7 10 13 16 18 17 17 17 18 19 20 19 20 21 24 24 24 23 23 25
10 11 11 10 9 8 7 7 6 7 8 9 10 12 14 15 15 16 18 16 18 20 21 21 21 22 22 21 22 22 21 23
10 8 7 7 7 7 7 8 9 9 10 10 11 12 13 15 16 18 17 20 21 22 23 22 21 20 18 17 13 11 11 13
4 5 5 5 6 8 10 12 13 12 12 12 13 13 15 16 18 18 22 24 25 26 23 21 19 16 14 11 11 7 9 9
2 4 5 8 9 10 11 14 17 17 16 15 15 16 17 18 19 21 22 23 25 22 19 14 12 8 8 10 9 10 10 10
5 7 7 10 11 13 13 16 17 18 17 17 16 17 17 19 20 22 23 23 22 15 10 7 9 9 9 10 13 13 9 8
7 9 10 11 12 13 13 13 14 16 17 16 17 18 19 21 22 22 22 19 11 10 8 9 11 15 16 11 10 10 12 13
8 9 10 11 11 13 14 14 15 16 18 20 20 20 20 19 20 19 18 12 8 9 11 10 11 11 11 11 12 13 12 14
7 8 10 12 15 13 13 14 17 19 20 20 20 19 19 18 14 12 14 13 13 13 13 14 11 13 14 14 16 15 16 18
10 11 10 13 12 12 14 16 18 19 19 18 18 19 17 13 15 14 12 14 15 15 12 13 17 19 19 18 19 19 20 23
9 10 14 17 12 11 15 16 17 17 18 18 19 16 15 13 9 13 13 13 15 15 16 18 19 18 19 19 16 17 22 23
13 11 14 15 12 14 16 18 17 17 17 17 15 12 12 10 10 10 13 14 16 19 20 20 19 19 19 10 12 19 23 25
11 10 13 13 14 16 18 17 17 16 17 16 13 11 12 12 13 14 15 18 20 21 20 20 20 20 15 15 15 19 23 25
9 10 14 16 15 16 18 17 18 16 16 15 13 13 13 13 14 16 17 19 21 20 20 20 19 20 13 17 21 21 24 24
8 14 17 15 17 20 18 19 20 18 16 15 13 12 14 15 16 17 19 20 20 20 20 19 20 20 18 20 19 22 22 24

GFSFLT1_925_spd_030.txt.gz
Wind_Speed
13 19 15 16 14 11 9 7 7 4 3 1 5 7 7 8 3 1 4 7 5 8 12 16 18 20 21 22 23 24 25 25
24 24 21 19 15 14 13 11 10 6 4 4 7 10 10 8 6 4 6 6 10 12 14 14 16 21 20 21 22 24 26 24
18 20 21 19 15 13 12 12 11 9 8 6 5 6 5 6 7 3 11 9 8 15 17 18 16 20 22 22 23 25 24 22
12 16 17 16 14 13 11 10 10 10 10 7 7 9 10 10 12 15 14 15 15 15 15 18 18 19 18 21 25 26 24 23
12 14 14 14 12 11 9 7 7 8 9 9 10 11 13 16 17 14 12 15 14 17 18 19 18 19 19 21 20 24 22 21
9 12 13 12 9 8 6 6 5 3 6 7 8 10 12 14 16 15 17 13 19 19 21 23 21 21 23 19 11 13 13 17
10 9 10 12 7 5 6 8 10 10 5 6 8 9 11 13 14 15 14 18 19 20 22 23 19 12 12 14 13 14 15 15
4 6 6 5 3 2 4 7 10 13 14 13 11 11 13 13 16 15 16 18 20 23 21 14 12 15 16 14 12 11 13 18
2 6 5 9 10 11 11 12 14 14 15 14 13 14 14 14 16 14 15 17 18 12 12 15 14 11 11 12 12 13 13 12
4 7 9 7 9 10 9 11 13 13 15 16 16 15 16 16 16 16 16 15 10 11 15 14 14 14 16 15 14 14 13 12
3 4 3 4 8 11 11 12 15 16 17 17 18 19 17 19 18 14 9 12 10 11 16 15 17 17 14 12 12 12 12 14
4 7 9 9 10 12 11 12 13 15 18 19 19 19 18 17 13 15 14 15 14 15 15 15 16 18 15 15 15 16 16 15
3 7 8 4 7 10 12 11 13 16 17 18 18 17 18 17 17 15 15 14 14 15 15 14 14 17 18 19 18 18 19 15
4 7 8 10 14 10 8 12 13 16 16 17 18 17 12 13 13 13 16 17 15 14 16 16 18 19 19 19 20 18 11 17
10 8 11 15 14 10 11 13 14 17 17 17 18 10 11 11 13 13 14 13 13 15 16 18 20 21 21 18 13 15 16 18
13 11 15 17 15 13 14 13 16 16 18 17 18 7 9 10 15 16 16 15 16 17 19 19 20 20 13 14 15 14 16 20
14 15 16 15 13 15 13 16 16 18 21 18 20 11 11 11 14 15 16 16 17 18 18 19 19 18 14 15 17 20 19 20
15 14 16 16 17 14 16 20 17 17 21 21 15 8 7 12 16 17 17 16 16 17 18 18 15 17 15 20 20 23 20 22
13 15 17 20 17 19 21 18 16 19 21 18 18 8 12 12 15 16 14 15 17 16 17 11 15 17 22 25 26 22 23 21

GFSFLT1_925_spd_033.txt.gz
Wind_Speed
25 30 30 30 28 23 24 21 17 10 9 5 0 3 2 4 4 5 2 2 6 7 8 11 14 17 20 20 22 23 24 27
27 29 31 30 25 23 19 23 18 15 13 9 7 9 6 6 6 3 5 3 2 7 12 13 15 16 19 22 21 22 26 27
20 27 27 26 23 21 19 15 13 15 13 11 9 10 8 8 11 13 12 10 11 11 12 14 15 15 16 16 20 24 24 18
11 19 22 23 21 19 17 13 11 9 10 8 5 6 9 14 16 15 14 12 11 13 14 16 17 18 18 20 22 17 14 13
13 17 17 16 15 15 11 7 5 7 8 7 8 7 8 12 14 15 13 11 14 16 17 18 20 20 19 15 9 11 13 13
9 16 15 12 10 9 7 10 7 4 6 6 6 4 6 8 10 11 11 14 15 18 20 24 21 13 10 13 15 14 13 11
13 17 15 13 10 8 5 8 13 16 15 14 11 10 10 9 11 9 11 13 15 16 16 13 13 16 19 18 14 13 14 14
7 13 13 10 10 10 11 12 13 12 11 10 10 12 12 13 13 10 12 13 11 11 13 15 20 19 15 13 14 17 17 18
6 11 13 13 10 6 4 5 5 8 10 13 13 14 15 12 12 16 11 7 9 10 13 17 16 13 14 15 15 13 14 12
8 13 12 9 5 4 5 7 7 9 9 10 13 13 14 16 14 7 7 9 10 16 15 11 13 19 15 13 13 16 15 14
5 6 8 10 9 7 6 6 10 10 11 13 15 17 17 12 10 12 13 15 14 13 14 12 17 16 15 15 15 15 17 16
5 9 13 9 8 8 10 11 10 11 14 16 15 15 12 9 10 12 13 16 13 14 16 15 16 16 16 17 18 19 17 16
8 11 12 13 13 8 9 9 10 11 13 14 14 16 10 11 10 12 16 19 17 17 16 16 17 17 17 18 15 13 5 6
13 19 18 19 18 6 8 9 7 12 12 12 16 18 10 10 9 10 12 16 16 15 15 15 15 16 17 16 9 9 11 14
8 10 14 18 19 13 12 6 10 12 10 14 16 14 12 8 6 9 12 12 13 12 17 16 16 18 13 11 14 15 16 18
8 6 11 15 16 17 20 9 14 17 17 17 20 20 11 5 7 8 11 10 10 12 15 16 15 10 11 13 15 18 21 23
6 8 12 15 16 17 13 21 23 23 16 19 22 31 12 10 9 12 10 10 10 8 11 11 7 9 10 16 21 21 23 22
6 9 15 18 21 24 26 21 19 17 23 23 24 15 9 11 10 12 10 9 9 9 10 5 7 11 14 21 21 21 21 23
10 17 21 28 30 24 21 24 26 24 22 24 16 6 10 14 16 11 4 6 10 12 3 5 10 15 19 20 19 22 21 21

GFSFLT1_925_spd_036.txt.gz
Wind_Speed
22 29 34 34 27 23 22 20 14 13 8 5 4 4 9 8 7 5 2 2 1 3 6 8 10 12 13 15 16 18 21 24
26 31 30 29 29 26 23 17 15 11 9 7 11 11 16 13 14 13 11 8 7 6 6 7 9 11 12 13 17 20 25 22
18 26 24 25 23 20 21 20 18 17 16 14 13 10 14 16 13 12 10 8 7 8 9 12 14 15 17 19 21 19 12 13
10 19 22 22 21 18 16 14 13 13 14 13 13 13 12 12 12 9 8 6 7 9 11 15 18 21 21 19 16 14 9 10
12 16 17 17 17 16 14 11 13 13 13 14 11 8 8 9 9 6 7 9 11 13 16 19 21 16 11 10 11 12 12 8
9 15 15 14 14 13 15 14 11 10 9 9 7 5 3 3 4 7 9 11 14 16 17 19 16 11 12 15 12 6 7 6
11 14 14 12 11 10 11 11 10 5 4 4 3 4 3 4 6 7 8 9 10 12 11 9 9 14 14 8 7 10 10 9
7 10 11 10 10 12 10 7 9 7 7 7 6 4 3 4 5 9 10 9 8 7 9 14 15 15 13 12 13 12 12 13
6 12 13 15 13 8 6 8 12 9 9 7 5 6 7 8 9 7 3 5 6 11 14 13 12 12 12 11 11 12 12 11
8 15 14 8 4 4 7 12 11 8 6 5 7 8 8 8 5 5 7 9 12 10 10 11 11 12 16 14 13 15 16 17
2 5 8 11 9 9 10 8 5 3 4 8 9 7 7 7 7 6 6 8 8 9 10 13 12 16 16 15 16 17 20 20
8 15 16 15 11 9 7 5 3 4 7 9 9 8 11 11 11 8 8 12 12 12 12 11 11 13 14 14 15 15 13 8
10 12 14 14 7 2 2 3 3 4 8 8 9 14 16 16 16 12 8 10 10 9 9 10 10 12 10 9 9 4 7 9
6 10 11 13 13 8 7 7 5 7 11 15 18 18 19 19 17 12 9 10 10 9 6 9 11 8 8 4 4 5 7 10
4 5 8 10 11 11 12 15 9 13 15 17 18 19 21 19 16 13 12 11 10 9 5 4 8 9 6 5 7 11 16 18
6 5 10 11 11 12 14 15 19 21 21 19 18 23 19 17 19 14 14 14 9 9 7 4 8 7 6 6 12 18 19 17
5 7 10 14 18 21 21 20 20 20 20 24 25 25 20 15 16 19 15 11 15 8 3 8 7 5 5 13 17 17 16 17
5 8 13 19 19 16 17 17 18 19 18 14 17 19 13 8 12 13 19 18 14 4 8 5 2 6 9 12 13 15 17 16
8 14 19 17 13 14 15 18 20 17 14 13 14 13 15 15 15 9 6 4 9 13 6 1 5 8 11 12 14 14 13 16

GFSFLT1_925_spd_039.txt.gz
Wind_Speed
14 22 23 22 20 17 17 16 10 5 4 12 15 15 16 13 12 8 4 3 3 3 6 7 8 10 12 14 15 18 20 20
19 26 33 31 24 18 13 7 9 7 9 12 13 17 15 15 13 11 8 7 7 9 9 10 12 14 16 19 22 23 22 19
15 24 28 28 25 24 21 20 18 15 15 15 12 12 11 8 7 8 7 8 8 8 9 11 14 18 21 20 18 15 11 14
8 16 23 23 23 20 18 17 16 15 12 10 9 7 5 3 2 2 1 4 5 7 9 12 16 18 15 13 14 15 15 17
9 15 18 20 18 16 17 15 13 10 6 4 2 1 2 0 2 2 1 3 8 10 13 14 16 14 14 15 17 16 11 11
8 12 16 15 16 17 16 13 11 10 7 4 4 4 2 2 1 2 4 6 8 9 9 9 9 10 13 14 8 6 8 11
5 10 13 13 12 14 14 12 10 7 7 7 6 5 2 1 5 5 7 8 6 5 6 9 12 11 10 9 9 9 10 9
7 9 11 9 7 9 8 6 7 6 6 5 4 4 3 4 6 9 10 8 5 6 11 13 10 10 9 9 9 8 8 8
7 9 5 3 5 5 4 8 9 6 4 4 4 3 5 9 10 8 5 5 7 10 11 10 9 9 9 11 12 11 11 12
4 7 6 3 1 3 8 9 8 5 5 5 6 7 10 11 10 7 8 9 9 10 10 10 10 10 12 12 9 10 12 13
7 12 11 8 3 4 4 2 2 3 5 7 10 10 10 10 12 15 15 11 11 11 12 11 9 8 8 10 11 12 13 13
7 14 12 8 3 2 1 3 4 5 7 10 11 15 15 14 17 17 16 14 13 11 11 10 8 7 7 9 11 10 9 5
8 11 13 11 9 5 6 6 8 9 9 13 16 16 15 17 19 20 20 16 12 14 13 13 13 10 11 8 9 5 5 7
7 9 8 6 6 5 6 8 13 13 14 16 19 21 19 20 20 21 20 16 14 14 14 14 13 10 9 7 5 6 8 11
3 4 5 5 7 12 13 14 13 13 16 17 18 20 20 20 18 17 18 17 18 18 17 13 15 9 7 6 6 9 15 17
2 2 5 9 11 9 9 12 14 16 18 17 15 16 18 21 20 21 17 18 16 11 12 18 14 7 8 5 10 15 17 17
3 6 9 10 7 8 10 11 15 18 18 11 13 16 15 15 17 16 18 16 13 20 9 5 12 10 4 10 14 16 17 17
4 5 6 5 7 8 12 15 18 16 10 9 10 14 15 18 21 20 20 20 14 2 4 10 8 4 7 11 12 14 15 16
5 3 5 5 10 14 15 16 14 10 7 8 12 16 19 23 21 17 18 10 11 8 11 5 2 5 8 10 12 13 15 17

GFSFLT1_925_spd_042.txt.gz
Wind_Speed
11 7 5 13 19 21 21 19 14 4 3 10 11 14 14 13 12 9 7 7 7 7 7 8 8 11 14 17 18 18 18 14
16 18 22 25 23 21 18 14 10 8 14 14 13 13 12 11 9 7 7 8 9 9 9 10 13 17 18 18 18 17 17 17
13 20 23 25 23 22 18 16 13 12 12 14 10 9 8 8 8 9 8 6 6 7 8 10 13 15 16 17 17 17 15 18
5 16 20 21 24 24 22 20 17 13 11 10 9 6 3 2 1 1 1 3 5 7 9 10 12 14 14 15 17 17 12 11
3 9 16 18 18 17 17 14 11 9 7 4 3 2 2 3 3 3 1 4 6 6 7 8 11 13 15 17 15 13 10 9
7 9 12 15 13 13 13 12 8 7 5 4 2 2 2 2 0 2 4 6 6 6 6 7 10 13 12 10 9 9 9 10
10 13 11 12 10 12 13 11 8 7 5 3 2 3 2 2 4 5 6 7 7 6 7 9 13 11 8 6 8 9 9 9
6 7 10 10 14 10 10 7 7 6 3 4 5 5 6 7 9 11 11 10 10 9 11 13 13 11 10 8 8 10 10 10
3 4 7 8 8 8 6 7 6 5 4 5 4 6 10 11 10 11 9 10 11 11 13 15 15 12 12 13 14 11 12 12
7 8 8 9 7 4 6 6 5 2 2 3 6 9 11 12 12 14 14 16 18 17 16 15 15 15 14 15 14 11 13 13
5 10 9 10 9 9 8 4 2 0 3 5 9 13 14 14 14 17 18 20 20 17 15 14 15 15 14 14 13 13 14 14
6 12 14 12 9 9 5 1 3 6 9 11 13 16 16 16 18 21 22 22 20 17 14 14 12 12 11 12 13 11 11 11
8 9 10 9 8 8 8 8 10 13 12 15 18 19 19 20 20 23 22 21 21 18 16 14 13 13 13 13 10 11 8 8
4 6 7 8 10 9 9 9 10 11 12 13 15 16 16 15 17 18 19 21 21 20 18 15 13 10 13 10 11 7 7 11
3 5 9 8 7 8 7 8 10 11 12 13 11 10 13 17 20 20 21 23 21 18 17 16 12 11 12 7 7 8 12 15
3 3 6 6 5 6 7 7 10 13 15 14 9 12 14 17 20 23 24 21 17 15 15 16 9 1 7 10 9 13 16 19
3 2 2 4 5 5 6 9 13 16 15 10 11 13 15 18 20 22 22 18 17 14 9 3 1 9 6 6 11 15 17 18
3 1 1 3 3 5 9 10 15 14 12 13 14 14 16 18 20 20 15 16 10 8 6 6 8 1 4 9 13 14 16 18
1 2 2 4 4 7 10 11 11 14 16 17 15 15 17 18 20 18 14 11 13 10 10 5 1 3 7 11 12 13 17 21

GFSFLT1_925_spd_045.txt.gz
Wind_Speed
6 6 6 9 13 17 18 19 17 10 7 16 17 6 8 9 10 9 8 8 6 5 5 5 6 9 10 12 13 12 11 12
7 12 14 17 19 20 21 19 12 12 6 11 16 12 10 10 8 7 6 5 4 5 6 7 9 11 12 12 10 11 12 11
11 13 15 16 18 19 18 14 15 13 17 17 13 12 7 6 5 4 3 3 5 6 7 8 10 10 12 13 11 11 11 10
10 10 11 13 16 17 16 16 15 15 15 14 11 9 6 4 2 2 3 4 5 7 8 8 9 10 10 13 12 10 11 9
9 12 13 14 17 20 21 19 18 16 13 8 5 2 2 2 2 2 3 6 7 8 8 8 9 12 13 12 9 8 8 11
11 13 12 8 12 14 16 15 11 9 7 5 3 4 4 3 3 4 6 8 9 9 8 9 10 13 12 11 7 7 7 8
9 10 12 10 10 10 11 9 9 6 5 4 5 5 4 4 6 7 9 10 9 10 11 12 13 13 11 7 7 7 7 7
9 9 7 6 6 7 8 8 7 6 6 7 7 6 7 10 9 9 10 9 11 13 14 14 13 11 10 10 10 10 10 10
8 9 9 7 7 8 7 8 8 7 7 7 6 5 8 8 9 9 10 12 13 15 16 16 15 14 14 14 12 12 12 11
7 7 8 8 8 7 8 9 7 6 5 4 4 6 8 9 12 14 14 15 17 17 17 17 17 16 16 15 14 15 14 14
6 7 8 8 8 10 9 7 5 3 3 4 6 9 11 13 15 17 19 23 24 22 21 18 17 17 16 16 17 14 16 14
8 10 10 10 10 9 8 6 5 4 5 6 9 12 12 14 16 16 17 19 19 20 21 21 18 14 14 14 12 13 9 9
11 10 9 10 10 10 8 6 6 7 6 7 10 13 14 12 11 15 17 19 21 22 19 15 14 12 10 9 10 6 8 6
8 8 9 10 9 7 6 8 9 9 9 12 14 10 9 10 13 15 19 21 22 20 15 12 11 11 13 9 8 5 6 6
7 7 8 7 6 6 9 7 7 9 12 13 12 8 8 11 12 17 20 21 19 15 12 9 8 12 9 3 3 4 6 9
6 6 6 6 8 7 5 5 7 10 12 11 9 9 11 12 15 19 21 19 13 13 10 9 8 2 1 4 3 5 9 13
8 8 6 7 7 5 3 5 7 12 11 9 11 12 13 14 16 18 16 13 10 10 12 5 2 4 4 3 5 8 10 12
8 7 8 8 6 2 3 6 8 9 11 12 14 14 14 14 14 14 14 12 10 9 9 5 6 1 2 6 9 7 10 12
8 10 10 9 4 1 2 5 8 10 11 13 14 14 14 12 12 14 14 13 11 12 9 7 4 2 5 8 11 8 10 13

GFSFLT1_925_spd_048.txt.gz
Wind_Speed
3 3 4 7 13 16 18 18 18 15 3 9 12 14 6 8 7 8 8 6 5 4 4 4 5 7 8 9 11 13 15 16
6 6 8 11 14 17 17 18 18 13 9 4 8 10 8 7 6 6 5 4 4 4 4 6 7 8 9 10 12 14 16 15
8 9 11 11 14 15 15 14 12 11 8 11 10 10 7 6 5 5 5 4 4 4 4 5 6 9 10 11 12 14 15 14
11 11 11 13 14 14 13 12 12 11 11 9 8 6 6 3 2 1 2 2 3 3 4 5 7 9 11 11 11 12 14 15
10 14 16 16 15 14 14 14 14 13 12 9 9 4 4 1 1 1 1 2 3 4 5 5 7 8 10 11 11 11 12 15
13 16 17 16 14 13 11 11 9 9 7 7 6 4 4 2 1 3 5 5 5 5 5 7 9 10 11 11 10 11 12 13
16 15 13 12 10 10 10 10 9 7 7 7 6 5 3 0 3 5 7 8 7 8 10 11 12 13 12 12 12 13 14 15
13 14 13 12 11 10 10 10 9 8 8 7 6 5 3 2 5 7 9 10 12 14 14 15 16 15 15 14 15 15 16 17
13 14 13 12 12 11 9 8 8 8 8 7 4 1 2 5 7 9 11 13 15 16 16 16 17 18 18 16 16 17 17 16
12 13 12 11 10 9 8 8 8 8 7 5 2 2 4 7 9 11 12 14 15 17 18 18 19 20 19 18 18 18 18 16
10 10 9 9 8 9 9 8 8 6 3 1 1 4 6 7 8 9 11 12 14 16 18 20 21 21 19 19 19 18 17 15
10 10 10 10 11 11 10 8 6 3 2 1 3 4 6 7 8 8 10 13 17 19 21 21 21 21 19 20 19 17 17 14
11 13 14 14 12 10 9 7 6 3 3 1 4 6 6 7 8 10 13 16 18 19 19 18 19 18 17 15 16 14 10 12
12 13 13 12 11 11 9 6 6 4 1 5 7 8 7 8 10 12 14 17 18 17 16 16 16 15 13 12 11 7 7 10
12 11 12 12 11 11 9 7 3 1 4 8 9 9 8 10 12 13 15 17 16 15 15 14 11 11 10 10 5 6 9 10
12 11 12 12 12 11 9 5 1 4 7 9 9 9 10 12 13 14 15 16 15 14 10 9 8 4 4 5 6 7 10 13
12 12 12 12 13 10 6 2 2 6 7 9 10 12 13 14 14 15 15 17 16 13 12 10 8 7 8 5 5 9 12 14
13 12 12 12 10 7 4 2 2 5 8 10 11 12 14 15 15 15 16 17 16 15 14 12 10 7 7 6 8 10 12 12
12 13 12 12 9 6 3 2 4 6 8 10 11 12 14 14 14 15 17 17 15 15 13 11 9 6 7 7 9 9 11 12

GFSFLT1_925_spd_051.txt.gz
Wind_Speed
8 8 8 10 13 16 17 20 20 19 14 9 8 13 8 5 5 5 4 3 3 3 2 3 6 7 8 10 12 13 15 18
8 6 7 9 12 15 19 19 17 13 9 6 8 6 10 11 8 6 4 2 2 3 4 6 7 9 9 10 12 14 16 18
8 9 9 12 13 16 18 15 16 11 9 8 11 14 13 11 8 6 3 2 3 4 6 8 8 11 10 11 13 15 17 17
11 13 12 13 14 15 17 15 14 12 12 12 11 9 8 8 6 5 1 3 4 6 7 8 8 9 11 12 13 14 18 18
12 14 17 18 18 16 15 15 14 12 11 10 11 12 6 5 2 1 3 4 6 7 8 8 9 11 13 13 15 16 17 19
14 18 19 18 17 16 15 14 12 11 7 7 7 4 2 2 2 3 6 8 8 8 9 9 11 14 15 16 17 17 18 21
16 19 20 17 15 14 13 13 12 10 8 6 4 4 1 2 3 7 8 9 8 9 10 12 15 17 17 18 17 18 19 19
15 17 18 16 16 14 13 12 11 10 9 7 6 4 2 3 5 9 8 11 12 12 13 16 18 20 20 18 21 20 19 18
15 17 15 15 14 14 12 12 11 9 8 7 5 2 3 5 7 10 12 13 13 14 16 17 20 21 21 19 20 21 17 17
15 16 14 14 13 13 12 12 11 9 9 7 4 1 3 8 8 11 12 12 14 15 16 18 20 21 22 21 19 21 19 18
14 14 14 13 14 12 10 11 11 10 8 5 4 4 8 8 9 11 11 11 12 14 16 18 20 21 22 22 18 20 18 17
13 14 12 11 10 12 12 13 12 8 5 4 7 4 7 9 10 9 10 11 13 16 17 18 19 19 20 20 17 18 18 18
12 12 13 13 15 15 14 11 11 7 2 5 5 7 8 10 10 10 11 13 14 16 18 18 19 20 19 16 17 16 16 14
11 13 15 16 16 14 14 13 8 8 8 6 7 8 10 10 10 11 12 13 15 17 17 18 20 17 15 14 14 13 12 7
13 13 15 16 14 16 14 10 9 7 5 6 8 9 9 10 11 13 13 14 16 17 18 17 16 15 13 11 8 6 8 10
14 13 14 15 16 15 12 9 8 4 5 7 8 8 10 12 14 14 15 15 17 18 17 17 11 12 11 6 8 9 9 11
14 13 15 15 15 13 11 8 5 3 6 7 8 10 12 14 15 16 17 17 18 18 16 15 15 13 10 10 8 10 12 14
13 12 14 13 12 11 9 6 3 3 6 8 9 11 13 15 17 17 17 18 18 16 15 15 16 17 10 8 7 8 13 13
11 12 11 11 10 9 6 4 2 4 7 9 10 12 15 17 17 17 17 17 17 17 17 15 16 12 7 6 7 10 12 12

GFSFLT1_925_spd_054.txt.gz
Wind_Speed
13 10 11 17 26 25 23 23 22 21 18 15 11 9 6 4 9 10 11 8 4 4 3 3 5 8 8 11 10 12 15 18
10 9 10 12 21 28 26 23 20 18 15 11 8 10 9 11 10 10 8 5 3 1 3 5 7 7 9 9 10 13 15 19
13 11 10 7 21 23 20 17 16 13 14 12 11 11 12 11 12 9 6 4 1 2 2 3 6 8 10 9 12 15 16 16
10 13 12 14 20 20 16 16 18 19 14 13 15 15 13 14 11 10 9 5 1 3 4 6 7 7 10 12 12 11 12 18
13 17 15 13 15 14 20 23 20 14 15 14 14 13 12 10 12 13 6 1 2 4 6 7 7 8 11 12 12 16 15 14
11 19 19 21 23 23 22 19 16 15 10 15 14 7 11 10 7 4 2 7 6 8 8 9 8 11 14 16 17 10 13 17
12 16 19 19 16 17 17 17 15 14 9 8 6 7 9 10 5 3 4 3 8 6 5 5 7 12 14 16 17 15 14 17
13 15 18 18 16 15 15 16 16 13 11 9 8 8 7 4 1 2 5 7 10 11 10 12 15 17 19 21 21 17 20 18
14 18 20 19 18 18 17 18 17 14 12 11 10 8 4 3 1 4 6 9 10 11 12 12 15 18 19 20 21 20 17 16
15 19 21 23 20 19 16 18 18 16 14 12 9 6 5 5 4 4 6 7 8 11 13 14 16 18 19 20 21 19 14 13
14 16 17 19 20 19 16 12 18 17 13 10 9 5 3 5 4 6 6 6 8 10 12 15 17 18 18 20 22 15 15 16
12 14 19 14 19 18 15 11 16 15 13 9 5 3 3 5 5 7 6 7 9 11 14 16 17 18 19 19 15 14 13 11
12 14 18 16 17 15 12 12 14 15 11 9 9 7 6 6 7 7 6 7 10 11 14 16 16 16 12 17 17 16 15 13
12 11 13 12 12 14 15 14 14 9 9 9 5 5 3 7 7 7 8 10 11 13 15 17 17 15 18 17 14 13 14 9
9 8 10 10 12 14 15 12 9 10 11 4 3 3 4 6 8 10 11 11 12 14 18 18 11 11 11 13 11 10 9 10
7 8 9 13 14 14 12 12 12 8 3 2 3 3 4 7 10 12 13 14 15 17 18 11 13 13 14 10 11 7 9 11
9 10 12 14 15 13 14 11 10 5 2 3 4 5 6 8 11 14 16 15 15 17 13 11 12 14 18 15 15 10 7 12
8 8 10 14 14 14 11 9 6 2 3 4 6 7 9 10 13 15 16 16 17 15 11 13 17 15 17 17 10 7 6 11
6 8 12 12 14 11 10 8 5 2 2 5 7 9 11 13 14 15 16 16 16 16 11 13 15 15 14 12 7 7 7 12

GFSFLT1_925_spd_057.txt.gz
Wind_Speed
25 33 35 39 34 36 36 33 29 26 22 19 14 6 8 11 13 14 14 12 11 7 7 6 3 5 7 7 6 9 11 13
20 18 30 30 35 38 38 34 29 26 21 17 11 8 9 11 12 13 12 10 8 8 9 8 6 6 7 6 8 10 12 13
13 15 13 30 32 35 32 29 27 23 20 15 9 12 10 16 15 14 12 8 7 8 3 1 5 6 5 9 13 12 11 13
8 13 21 28 30 31 27 24 23 22 19 16 13 15 18 18 17 13 8 8 7 4 1 4 5 5 8 11 12 11 11 14
10 17 22 25 24 21 21 20 21 21 15 22 22 20 23 21 17 11 9 8 3 3 5 8 9 9 8 11 12 15 14 9
13 18 26 25 27 26 23 21 20 16 22 22 24 22 15 17 17 14 9 2 2 4 7 7 5 5 6 8 11 13 14 12
15 21 23 22 18 21 26 22 18 19 19 20 17 20 21 21 17 12 7 8 6 7 3 2 2 7 11 14 17 17 18 15
12 12 16 21 19 21 23 27 22 17 16 14 19 19 16 12 9 8 4 1 3 5 5 6 8 10 13 15 16 18 19 20
11 16 22 23 19 17 22 23 21 17 15 15 13 13 12 10 6 3 3 2 3 4 7 9 12 13 15 17 19 19 20 14
13 17 24 25 19 16 15 21 21 20 19 17 13 10 7 3 4 1 5 6 4 6 8 10 12 15 16 16 18 20 13 11
12 17 23 28 27 23 21 22 27 25 22 19 15 10 2 3 6 3 5 5 5 6 8 10 12 13 14 13 11 8 10 8
10 14 25 30 33 31 23 26 29 25 22 17 12 5 8 6 4 5 6 6 5 6 8 9 12 12 13 11 13 16 16 12
9 17 22 24 24 25 26 28 24 22 17 10 5 7 6 7 7 4 5 4 4 6 8 10 13 16 15 14 16 13 11 14
9 14 18 22 24 27 26 25 24 17 10 7 6 6 4 1 1 0 3 7 9 10 11 15 17 12 11 14 16 10 12 10
10 13 18 22 24 26 29 24 17 11 9 6 4 2 2 1 3 6 9 9 11 13 15 18 10 8 11 12 14 12 11 10
14 13 13 21 25 28 26 19 13 10 7 10 11 7 2 3 6 9 11 14 17 18 16 12 10 10 12 12 12 10 10 7
12 13 17 22 26 28 22 18 13 14 12 11 7 3 4 7 9 10 13 15 15 15 17 12 11 12 13 14 12 14 15 10
11 12 19 24 26 26 26 21 20 15 12 10 7 6 7 8 13 14 15 14 12 12 11 13 12 9 13 15 15 15 7 8
9 15 21 22 26 27 28 22 17 12 11 7 3 7 13 13 13 15 14 13 16 19 18 14 8 10 13 15 15 9 8 9

GFSFLT1_925_spd_060.txt.gz
Wind_Speed
23 29 27 34 32 34 31 30 30 29 26 22 19 16 15 13 14 17 16 13 12 11 11 9 6 4 2 2 3 5 5 7
23 30 30 28 31 36 36 35 34 32 28 24 18 14 15 16 17 16 15 13 13 10 10 9 6 2 3 3 4 5 6 9
23 28 26 32 37 39 38 38 37 33 28 24 17 15 15 16 18 16 15 12 10 7 5 2 2 1 2 3 7 7 7 8
15 21 23 27 31 38 39 39 35 30 24 18 12 16 18 20 18 19 15 10 8 5 3 4 1 1 4 5 7 7 6 7
13 20 23 28 29 35 35 32 29 27 23 20 19 21 25 24 24 20 16 10 7 5 3 2 1 1 2 4 6 7 9 8
15 21 28 28 34 35 29 27 26 25 24 22 24 26 25 26 24 18 15 13 10 7 5 3 2 2 3 6 8 9 10 11
12 17 23 28 33 31 24 25 26 25 25 22 29 28 26 26 22 18 13 9 8 4 3 2 1 3 6 7 9 11 12 13
13 13 19 21 29 28 27 24 21 22 23 27 26 23 23 26 22 17 16 10 8 8 2 4 2 3 5 8 11 13 12 14
14 16 20 24 27 30 26 21 23 24 25 24 25 23 21 17 14 9 7 8 4 7 4 1 5 8 11 13 12 13 15 14
13 15 22 27 26 26 27 31 27 25 24 24 22 19 17 16 11 8 2 9 1 3 4 8 12 12 15 16 15 15 12 10
12 18 23 28 31 31 31 28 26 24 23 23 22 18 14 11 6 1 2 6 5 6 8 10 11 12 16 15 15 12 12 14
15 19 26 33 34 33 31 30 28 27 25 22 18 12 10 3 2 2 5 6 7 7 9 10 12 13 15 15 14 14 16 17
16 23 26 25 29 30 31 33 35 32 25 19 13 11 7 5 5 1 6 5 5 8 9 12 13 15 15 14 12 14 16 13
13 15 20 23 24 26 27 26 31 28 22 16 10 9 9 8 1 3 1 4 8 10 12 14 16 17 17 13 13 15 15 14
11 11 15 17 20 23 27 28 27 21 16 16 14 15 10 6 5 2 3 6 10 15 18 20 18 18 13 13 14 14 16 14
9 10 11 20 24 28 30 27 22 20 19 19 19 16 11 6 3 7 9 12 15 15 16 17 17 15 12 13 13 15 14 16
12 14 19 20 23 26 30 26 23 25 25 22 17 12 7 6 6 11 16 15 14 13 14 13 13 14 14 13 15 14 15 17
15 14 18 21 23 27 29 29 31 27 24 18 13 10 8 7 15 11 13 13 10 12 15 15 16 16 14 14 14 15 17 13
8 14 19 21 25 27 30 29 26 24 20 15 10 3 4 6 9 12 12 13 15 17 18 19 15 13 13 14 16 18 14 11

GFSFLT1_925_spd_063.txt.gz
Wind_Speed
17 24 26 26 25 28 29 28 27 24 26 23 21 19 18 17 16 16 17 17 14 12 11 9 5 3 1 3 4 3 2 2
15 21 24 23 27 30 29 29 30 32 29 26 23 21 18 16 16 17 17 16 12 10 9 7 5 2 1 4 2 1 1 2
16 19 20 25 29 32 32 33 34 34 32 28 24 21 17 18 20 18 15 13 13 9 7 6 5 2 6 3 1 1 1 2
14 20 28 29 33 35 37 36 36 34 31 24 18 19 16 20 21 19 17 15 11 8 5 3 4 4 4 2 2 2 3 3
13 20 23 34 39 38 38 37 35 34 28 23 20 23 23 22 24 22 20 15 11 10 8 8 7 5 2 1 2 2 6 7
16 21 28 27 29 36 36 35 33 32 28 23 21 20 23 23 23 23 19 16 11 7 8 5 4 3 0 2 3 4 6 7
10 16 20 22 29 31 34 31 30 30 28 24 22 22 23 22 23 20 17 12 11 7 7 6 2 6 2 3 6 7 8 8
11 13 18 21 25 30 32 32 33 28 25 26 25 23 25 23 26 22 19 17 12 9 7 7 11 4 5 7 10 11 10 12
15 16 23 25 26 27 29 30 28 26 27 28 22 24 24 22 23 22 19 14 13 11 12 9 7 5 6 10 12 11 10 9
16 17 20 21 24 30 30 28 25 25 28 24 23 22 22 23 20 16 13 6 9 10 6 10 6 4 8 10 11 10 7 8
12 13 19 24 30 31 29 29 28 26 27 27 26 26 24 23 17 12 4 6 9 12 11 8 6 8 10 12 11 10 11 12
13 14 22 28 31 32 35 34 34 33 32 31 29 25 24 20 13 8 5 8 15 12 8 7 9 10 10 12 13 13 12 14
13 17 22 25 28 31 36 37 38 37 35 35 31 28 22 15 6 7 12 12 11 7 8 13 12 11 13 15 15 13 12 15
8 9 17 21 21 24 28 31 29 27 29 24 22 17 10 10 11 10 10 7 5 7 11 12 12 15 15 16 15 12 14 16
11 8 10 14 17 20 24 25 28 30 26 23 15 12 14 15 11 10 6 4 6 8 10 12 14 16 16 15 13 14 15 17
10 9 7 17 21 24 25 30 34 30 23 19 18 18 16 14 10 5 4 4 6 8 10 12 14 15 14 13 14 15 16 16
11 12 14 18 23 26 28 28 28 24 21 21 21 20 15 10 4 3 4 6 8 11 12 12 14 14 14 15 16 16 17 18
10 11 14 16 18 25 26 27 23 22 24 22 17 13 8 3 3 2 7 10 11 12 14 15 16 17 16 18 16 16 18 20
8 13 17 21 25 24 25 25 27 27 23 19 13 6 3 2 4 6 7 9 11 13 15 17 20 21 18 16 16 18 19 20

GFSFLT1_925_spd_066.txt.gz
Wind_Speed
16 20 21 28 29 23 20 20 21 21 21 20 19 18 17 16 16 17 17 17 17 15 15 13 9 6 4 4 4 4 5 3
17 18 21 19 20 20 22 25 25 25 25 23 21 21 19 18 17 17 18 18 16 14 13 10 8 4 2 3 2 2 2 1
14 19 24 24 24 23 24 27 29 28 29 28 24 23 20 17 17 18 18 16 14 13 10 8 7 4 6 4 1 1 2 1
10 17 26 29 30 30 32 32 31 31 32 28 20 21 17 18 20 20 18 16 14 11 10 9 8 6 5 4 3 2 1 2
10 15 20 31 33 33 33 34 32 33 30 29 25 25 22 21 26 21 19 17 16 13 10 9 6 5 5 4 2 2 2 3
14 18 24 25 27 31 32 31 31 32 33 29 24 26 23 19 24 21 20 18 14 12 10 7 6 7 5 3 2 2 3 4
10 16 21 23 25 28 30 31 31 32 33 28 26 23 23 18 24 23 20 16 14 13 9 9 9 5 6 4 3 5 4 3
9 10 18 21 24 26 26 28 29 32 33 31 26 23 22 20 24 25 22 20 17 15 12 9 6 7 6 3 5 7 5 5
13 14 19 21 22 25 29 32 28 32 32 30 26 24 21 20 22 26 24 23 20 13 9 8 7 7 6 6 6 7 7 5
15 15 21 23 25 31 30 28 29 31 30 26 27 24 21 25 25 28 26 23 16 12 7 6 11 10 9 7 7 9 7 6
9 12 21 23 28 27 24 28 30 29 27 28 26 25 23 26 27 29 23 17 8 9 7 12 13 11 10 9 10 9 9 8
8 9 16 20 20 23 29 30 30 30 29 28 26 25 27 28 28 24 18 13 9 7 13 14 12 14 13 11 12 12 12 11
9 12 16 21 25 30 33 32 31 29 25 26 26 26 27 24 17 12 3 3 9 11 12 13 14 14 13 14 15 14 14 13
7 7 12 18 20 22 25 26 25 24 26 27 25 27 21 16 9 10 11 10 11 11 12 11 11 13 15 17 17 17 14 13
8 6 7 15 20 24 24 23 24 26 26 27 29 25 17 14 11 13 14 12 9 7 7 9 11 13 14 15 16 15 14 16
9 8 7 14 18 20 20 23 26 27 27 26 20 15 13 15 14 12 8 5 4 7 9 8 8 10 12 14 14 15 17 17
4 7 9 12 16 19 21 23 24 27 25 19 17 16 16 14 11 6 2 3 6 7 8 9 11 12 13 14 17 19 19 19
7 7 8 15 18 23 23 25 26 25 20 20 20 18 14 7 2 2 2 6 9 9 10 11 13 15 16 16 16 18 20 20
7 10 15 20 23 24 26 26 23 22 23 22 18 11 5 3 2 7 9 10 11 11 12 13 16 18 18 19 19 20 21 21

GFSFLT1_925_spd_069.txt.gz
Wind_Speed
19 21 22 24 22 20 21 17 16 16 19 20 19 19 18 18 16 19 20 18 18 18 18 17 13 10 9 8 6 5 4 2
20 22 23 23 21 21 20 20 19 22 24 20 18 19 18 16 15 18 20 20 19 18 18 15 12 9 8 6 4 3 2 1
17 20 22 24 26 26 25 24 26 26 23 22 18 19 17 17 19 20 20 19 18 19 18 15 13 10 8 6 5 3 3 3
17 22 25 25 26 28 26 24 27 26 23 22 17 20 17 17 20 21 21 19 19 19 16 14 11 8 10 8 7 6 4 4
16 22 26 27 26 24 22 22 23 25 26 25 25 22 19 15 25 24 22 21 20 18 16 12 10 11 9 8 7 7 4 3
19 23 26 23 23 28 26 25 25 25 26 27 26 22 22 20 22 22 21 21 20 18 16 14 15 11 9 7 7 4 3 4
18 20 21 21 22 24 24 23 23 24 25 27 26 25 22 18 22 21 21 21 21 19 18 18 13 11 5 7 5 4 4 5
18 18 20 19 20 21 22 22 22 24 29 29 27 26 23 23 22 24 23 23 23 23 21 18 15 4 5 8 7 5 5 7
18 20 23 24 24 24 23 24 23 24 26 27 28 27 26 24 25 28 31 27 23 23 22 18 9 9 9 11 7 5 7 9
18 18 23 25 25 24 28 26 24 23 26 25 27 30 27 28 28 28 26 24 23 23 17 10 11 11 13 9 8 8 9 9
13 15 22 24 24 25 25 26 23 23 23 26 28 30 29 27 24 22 22 21 19 15 11 10 10 13 10 11 10 10 11 11
11 13 18 20 20 23 21 21 21 21 22 24 27 26 25 21 19 22 24 22 15 11 14 8 14 12 12 12 13 13 14 15
9 12 16 19 20 19 19 17 17 17 19 20 19 21 19 17 21 25 20 17 16 13 11 11 13 13 13 14 16 17 16 16
6 8 13 18 19 18 17 17 18 17 18 18 17 15 18 24 25 22 19 10 10 10 10 12 11 13 14 16 17 18 18 18
9 9 9 13 15 15 14 13 14 15 16 16 18 19 23 21 15 12 9 10 7 9 7 8 12 12 13 13 15 16 17 16
11 9 8 10 11 12 12 12 13 14 17 19 22 23 18 13 12 12 10 8 8 5 7 11 11 10 10 11 13 14 15 16
7 9 11 13 12 13 13 15 17 22 24 27 23 16 15 19 15 10 9 6 2 9 13 10 10 11 11 12 14 15 17 19
4 7 10 15 17 19 19 20 20 20 25 22 18 23 21 16 11 8 4 8 16 11 9 10 12 14 14 16 17 19 20 22
8 10 14 15 18 18 20 20 22 27 24 25 25 21 16 13 6 6 10 8 9 9 11 11 13 16 15 17 19 21 19 22

GFSFLT1_925_spd_072.txt.gz
Wind_Speed
18 21 23 23 30 29 22 15 13 12 12 13 14 14 11 12 11 12 15 15 17 16 15 16 13 11 9 8 6 3 2 2
22 23 24 25 28 26 21 16 11 13 14 16 15 14 12 11 11 12 16 20 19 16 16 16 13 11 10 9 6 3 1 2
24 25 26 28 27 24 21 19 17 17 17 17 15 15 12 13 12 13 15 18 18 16 16 16 14 12 10 8 5 2 2 3
19 27 29 28 28 28 25 21 19 20 17 16 13 14 11 12 13 14 16 21 19 15 17 16 14 11 11 8 5 4 4 4
20 25 29 31 30 27 26 22 20 19 20 18 18 17 15 14 15 12 15 20 16 17 17 15 13 11 11 9 7 5 5 6
22 26 30 29 28 26 23 22 21 21 22 21 20 17 15 15 20 17 15 17 18 17 16 15 13 11 10 8 7 7 6 6
21 28 28 30 28 26 25 25 24 23 23 23 21 20 18 18 21 21 20 20 19 19 18 16 14 12 11 7 11 10 7 7
20 21 25 27 28 28 27 27 26 25 24 24 24 22 21 22 22 24 22 21 21 21 20 18 15 14 8 10 10 9 8 8
20 20 25 25 27 27 27 26 25 25 24 25 24 23 22 22 23 21 24 21 19 18 18 17 16 15 9 10 10 12 10 9
18 19 24 26 27 29 29 27 25 25 26 24 25 24 24 23 20 21 20 19 17 18 19 18 19 12 11 12 12 12 10 9
11 13 22 24 26 27 26 26 25 23 22 21 22 23 22 23 19 18 17 17 17 20 19 17 12 12 13 13 13 12 11 10
8 10 15 19 20 22 24 24 22 20 19 18 19 19 18 18 16 16 17 17 20 21 17 13 13 12 13 13 13 13 13 13
6 8 12 16 19 20 22 20 19 17 14 15 14 13 13 14 15 17 18 19 20 20 16 10 10 11 11 13 14 14 15 16
7 8 9 13 16 18 19 17 15 12 12 15 17 18 16 14 18 20 23 21 15 8 7 9 10 10 12 14 15 15 17 18
7 9 9 13 14 16 16 15 13 15 16 16 16 16 23 24 25 19 17 13 10 11 9 9 8 10 13 13 13 15 17 18
7 9 9 11 13 15 15 15 16 18 19 19 20 20 27 31 23 21 15 14 12 8 10 8 9 12 12 11 12 15 17 18
5 7 8 11 14 17 17 18 19 20 21 21 23 26 26 21 20 20 17 11 7 9 8 12 11 11 13 14 14 15 18 20
2 6 9 12 14 18 19 20 21 20 22 23 23 24 22 20 18 15 13 9 8 11 11 9 10 12 15 14 16 16 19 22
6 6 9 12 15 16 18 20 20 22 24 22 21 23 25 18 14 9 7 9 8 8 8 9 11 12 15 16 18 19 22 24

GFSFLT1_925_spd_075.txt.gz
Wind_Speed
21 26 22 23 27 31 29 24 21 22 18 16 15 17 17 16 17 15 16 15 15 14 13 14 14 13 11 10 9 6 3 1
23 23 19 24 28 32 28 21 19 18 17 18 19 20 16 15 14 13 15 14 15 15 13 14 14 12 12 11 9 6 5 2
21 25 26 28 31 30 23 19 15 18 18 18 19 18 17 15 14 14 14 19 19 16 15 15 14 13 12 11 9 7 4 3
21 25 28 29 31 28 25 21 18 18 17 17 16 15 13 12 14 14 14 14 16 17 16 16 15 14 13 11 9 6 4 2
20 23 28 30 30 30 26 24 24 21 19 19 19 19 17 17 16 14 16 18 16 16 17 17 16 14 13 12 8 4 1 4
23 25 31 32 31 30 29 26 23 22 21 21 21 19 18 13 15 15 19 21 18 18 18 17 16 14 13 11 8 5 2 5
23 32 31 32 31 31 30 28 26 22 23 25 22 23 16 17 17 18 19 19 21 21 20 18 17 15 13 12 10 7 9 9
20 22 27 32 33 32 30 29 27 26 25 25 26 24 22 21 22 22 20 19 22 22 21 20 19 16 16 13 7 10 8 9
22 23 27 31 30 33 32 30 29 28 28 27 27 26 23 22 23 21 21 23 23 20 23 21 18 17 19 9 9 8 9 10
20 22 27 30 30 31 33 32 30 30 30 28 27 24 25 24 22 23 22 24 20 21 23 19 18 16 15 5 7 10 11 11
13 17 24 27 28 30 30 30 30 30 28 26 25 25 24 21 19 20 23 23 20 20 19 19 17 17 9 9 10 12 12 13
7 10 18 24 26 28 29 29 29 27 25 24 23 21 19 20 19 19 18 16 18 18 22 17 16 14 14 11 12 11 13 16
6 8 12 17 22 24 26 26 27 25 23 21 19 20 20 21 18 17 16 17 18 19 18 19 14 7 10 11 13 13 15 17
6 7 9 13 17 19 21 23 24 23 20 20 21 24 26 25 27 26 27 26 17 16 17 11 7 9 12 14 13 15 16 17
8 8 9 11 14 17 18 19 18 16 18 18 22 24 23 23 22 24 27 29 25 21 13 11 12 14 13 14 14 14 15 17
8 8 9 11 13 15 16 18 15 17 16 16 17 24 23 21 21 25 27 23 19 15 11 12 13 12 13 13 11 12 15 17
4 5 7 9 11 12 11 15 15 16 19 21 23 23 21 27 29 25 21 15 17 12 11 11 9 13 12 12 15 12 15 18
3 4 5 9 11 17 16 17 18 20 20 22 20 21 22 24 22 20 17 14 12 9 9 9 9 10 12 13 14 13 16 20
4 5 9 11 15 17 18 18 19 23 23 22 21 21 21 20 18 16 13 10 8 7 7 7 8 9 11 13 15 15 18 22

GFSFLT1_925_spd_078.txt.gz
Wind_Speed
21 23 24 26 30 33 33 33 32 34 36 37 27 22 23 22 21 18 17 14 17 17 17 18 16 15 15 13 13 9 8 6
21 25 24 28 30 31 33 31 35 35 28 28 24 24 22 22 20 19 20 17 18 16 17 16 18 17 16 14 13 10 6 3
22 25 24 27 32 30 30 30 33 30 27 25 23 20 22 20 21 21 19 19 19 19 17 18 19 18 17 17 14 12 6 7
17 19 22 32 34 34 32 32 31 28 28 24 21 19 19 20 20 19 21 22 23 23 18 20 20 18 18 17 15 10 8 11
18 22 25 28 32 33 31 28 27 26 28 25 24 21 19 17 18 19 21 18 18 19 16 18 21 17 17 18 14 11 9 5
22 22 32 34 35 34 31 29 26 26 26 21 26 25 24 21 24 23 24 23 25 28 23 23 23 20 18 20 18 15 10 8
21 27 29 30 32 36 35 29 30 32 33 30 25 25 27 23 25 27 25 23 27 26 23 24 21 22 17 20 17 14 11 10
21 23 24 31 34 33 32 32 30 30 38 31 32 27 27 27 28 25 24 25 26 30 25 25 24 22 19 22 16 14 11 10
22 23 30 33 36 38 37 34 34 32 36 34 33 28 28 25 28 28 24 22 25 26 28 24 25 23 22 19 13 11 7 6
18 18 32 35 36 39 40 37 35 32 29 32 31 34 27 24 25 20 22 22 22 25 28 26 25 25 23 19 7 8 11 10
6 16 22 33 35 37 39 36 32 31 28 30 29 34 30 25 22 24 23 22 21 24 27 26 26 24 22 12 6 7 5 10
5 6 12 27 30 32 35 35 33 29 32 31 31 29 30 28 25 23 25 21 20 16 22 23 20 17 14 6 9 7 12 11
5 3 3 7 21 29 28 28 27 27 29 30 29 32 28 28 25 25 25 25 26 27 28 22 16 17 15 11 11 12 13 16
6 7 5 7 10 22 26 28 28 27 26 28 29 26 28 27 26 25 25 29 28 25 23 23 23 18 13 15 16 15 16 18
6 7 7 8 11 12 14 24 24 18 19 25 27 28 28 28 29 26 27 26 25 22 21 23 19 13 15 16 17 17 14 11
4 5 8 10 10 11 12 17 25 26 28 23 22 26 27 27 27 27 27 24 25 21 21 19 15 15 15 17 14 9 7 8
7 6 2 10 14 12 21 22 24 25 21 23 23 24 25 25 23 24 24 27 21 18 19 16 14 16 15 11 12 11 12 13
3 3 5 13 21 22 22 22 24 22 25 24 25 24 24 24 27 27 27 22 19 17 15 14 13 10 9 7 8 10 11 13
2 2 14 19 22 22 23 21 23 25 22 21 21 22 23 25 26 23 21 19 17 15 13 9 6 6 6 5 5 7 10 12

GFSFLT1_925_spd_081.txt.gz
Wind_Speed
12 13 17 25 30 33 39 38 38 38 33 28 29 25 20 20 23 18 18 15 15 21 20 22 22 21 18 16 16 15 14 11
17 15 15 16 18 24 29 32 37 35 31 32 33 30 24 29 25 20 23 22 21 24 22 23 22 19 19 19 18 13 12 11
19 22 22 22 25 23 25 34 37 38 36 33 29 29 22 24 27 28 27 27 26 25 22 26 22 20 21 20 20 16 11 11
16 22 26 26 26 30 29 32 37 38 36 32 24 24 27 30 33 33 30 27 27 25 23 26 24 24 26 25 21 18 13 15
17 21 26 29 31 31 32 34 41 39 37 30 27 25 22 27 33 32 28 29 29 27 27 26 25 25 28 27 23 20 14 16
21 21 29 32 36 34 34 33 33 36 36 35 30 31 32 29 30 29 27 29 27 27 29 26 27 30 27 26 25 23 17 17
21 30 30 31 37 37 35 34 35 37 38 38 36 33 32 31 29 31 30 30 27 27 29 26 28 29 26 26 26 26 21 17
21 21 26 32 35 36 37 36 31 39 40 39 41 36 38 35 34 34 34 33 30 31 31 31 28 29 28 29 31 29 23 16
24 24 32 36 38 38 37 37 37 35 40 40 41 36 37 39 37 37 38 38 35 34 35 32 28 31 29 31 31 24 20 13
24 23 33 36 40 43 46 41 37 35 37 41 42 43 38 35 36 38 38 37 33 27 31 32 29 31 28 30 22 13 9 12
19 20 31 36 40 43 42 43 42 44 39 37 38 41 41 39 33 37 39 33 28 23 26 31 28 29 26 15 10 10 11 11
12 23 31 37 38 38 40 41 39 36 35 37 38 40 42 39 34 34 32 30 27 25 29 31 32 30 26 26 20 18 13 11
8 5 18 31 36 35 36 37 38 36 36 37 40 42 42 38 30 30 32 30 28 28 28 32 32 31 30 27 22 18 15 18
8 6 5 23 30 30 29 34 38 36 31 38 35 36 36 29 28 27 30 29 27 25 28 32 31 29 27 23 21 20 18 15
7 7 8 12 29 25 27 28 32 35 39 32 30 32 35 29 30 33 30 28 26 29 32 32 29 25 23 19 17 15 15 17
6 8 8 9 17 26 29 28 27 25 22 24 28 32 30 30 33 31 29 28 33 33 29 26 25 23 18 16 16 15 15 13
8 7 6 5 14 20 23 26 26 26 25 24 25 24 25 26 27 28 31 32 29 28 24 24 21 14 12 13 13 17 12 10
7 7 8 12 17 24 24 26 24 23 25 22 22 23 24 24 25 26 28 29 28 23 21 20 15 15 12 14 12 9 6 6
8 8 12 14 22 25 27 27 27 26 24 22 21 21 22 22 24 25 25 27 21 19 17 16 13 12 15 12 8 5 4 4

GFSFLT1_925_spd_084.txt.gz
Wind_Speed
10 13 13 19 24 28 26 26 30 30 26 28 24 23 21 28 24 29 20 17 21 22 21 23 24 24 21 24 21 17 14 12
11 13 15 15 15 22 29 34 32 34 35 34 32 31 33 30 26 28 23 24 19 20 19 22 23 24 27 26 21 19 16 15
13 14 15 17 18 21 22 28 36 33 32 32 28 27 30 29 30 29 23 26 20 15 19 24 28 27 29 27 26 22 19 20
12 16 18 18 18 26 29 30 37 38 36 32 29 28 28 28 28 27 25 22 17 18 22 28 32 33 32 30 27 28 22 21
11 15 17 24 27 28 27 32 34 37 36 32 29 24 21 25 29 28 24 22 22 25 26 31 31 36 32 30 29 31 28 23
17 17 23 28 29 33 30 34 37 36 38 37 33 27 27 27 28 29 31 31 31 31 32 35 36 35 32 32 33 32 30 28
17 24 26 26 29 32 32 31 36 39 39 39 35 30 29 30 33 34 37 38 36 35 34 36 35 35 35 34 36 34 32 28
19 20 25 29 33 36 35 34 33 37 37 38 40 37 35 35 36 36 35 37 38 38 35 35 34 36 35 35 36 34 30 25
22 23 30 32 36 38 37 37 36 37 39 41 41 41 38 39 40 39 40 40 43 40 38 36 33 32 34 35 34 30 24 17
23 22 31 34 37 43 45 41 40 40 41 40 40 39 43 39 40 44 43 42 42 42 40 35 34 31 32 34 32 28 24 21
18 19 28 34 37 42 41 42 43 43 37 40 40 42 47 44 42 45 45 43 40 39 36 32 34 33 29 32 32 30 24 23
19 19 30 36 36 34 38 38 38 36 39 38 38 39 45 45 46 45 45 44 38 35 29 29 33 31 31 34 34 30 29 26
18 19 27 30 32 32 36 37 37 38 37 37 38 37 38 40 42 35 33 28 29 30 28 28 30 34 34 37 33 33 28 27
13 13 14 22 29 30 33 34 39 39 36 37 36 36 36 37 36 37 34 19 39 33 30 33 34 39 42 40 36 30 28 23
8 7 12 23 28 31 32 35 36 37 35 38 36 35 37 39 35 30 26 38 40 36 36 36 37 39 40 36 31 25 20 18
8 9 9 11 16 23 29 30 32 34 34 33 34 30 29 33 35 33 32 35 37 35 36 33 32 33 30 32 26 20 18 16
8 10 9 7 15 19 22 24 30 33 32 30 27 25 27 30 28 23 27 28 29 32 31 31 33 28 24 21 17 18 17 17
6 5 6 9 12 21 22 24 26 27 27 23 19 19 20 20 20 22 25 27 28 29 29 28 25 23 18 16 14 14 18 14
6 5 7 12 13 15 19 21 22 23 21 19 18 20 22 22 23 24 25 26 26 27 24 21 20 15 16 14 16 17 13 9

GFSFLT1_925_spd_087.txt.gz
Wind_Speed
11 10 12 15 19 19 20 23 36 38 36 29 26 27 29 25 23 22 25 22 21 22 25 26 25 25 23 20 21 20 18 16
12 13 15 15 18 21 25 25 30 35 30 27 28 27 33 27 22 23 23 22 20 19 25 24 25 28 25 25 23 22 19 18
10 13 16 18 20 23 23 25 27 25 25 23 23 29 33 32 26 24 24 24 21 22 26 26 27 28 28 28 28 23 18 21
11 12 15 16 19 22 25 28 31 29 28 26 23 21 26 26 30 27 24 25 22 20 21 25 30 31 31 31 30 28 24 23
11 13 15 19 22 24 27 32 32 31 29 30 28 26 25 27 30 29 23 22 22 22 26 29 32 29 29 31 31 31 30 26
12 13 20 21 20 27 27 29 34 32 31 31 32 28 29 30 30 28 25 26 29 32 32 28 27 29 33 34 35 34 33 30
10 15 18 20 24 27 30 29 31 35 34 34 34 30 31 31 33 29 32 34 34 33 31 28 28 30 34 35 36 35 37 35
13 14 15 19 27 29 30 33 32 37 39 41 42 40 38 36 36 35 33 37 36 35 34 33 34 34 36 38 36 36 39 37
16 16 19 21 23 28 30 29 30 33 37 40 42 41 37 37 37 36 36 37 41 41 39 39 39 37 37 36 37 38 38 34
18 16 22 22 25 29 31 29 29 31 35 36 38 39 39 37 38 36 39 42 42 40 40 41 42 39 38 37 39 38 35 33
14 15 23 28 28 28 31 33 33 33 32 36 36 38 40 40 34 38 39 40 41 40 41 41 42 41 38 36 36 35 34 33
18 18 27 30 27 31 34 37 37 35 35 35 36 38 38 37 37 38 41 39 42 43 41 39 40 37 34 35 37 37 35 38
17 18 24 26 30 30 35 37 41 43 40 36 40 39 36 36 40 39 37 39 42 39 37 36 31 38 41 39 37 37 39 39
12 12 15 22 29 31 34 37 42 41 40 39 36 37 37 39 39 37 40 38 27 29 23 35 37 41 40 38 41 41 41 40
11 8 13 20 27 31 34 38 41 41 40 40 38 38 41 42 37 33 33 30 28 30 38 38 37 38 37 37 36 35 36 35
10 13 13 13 19 26 30 33 34 37 38 37 39 37 33 33 34 36 34 35 41 35 34 32 36 36 35 34 33 32 31 30
10 10 9 11 17 23 27 29 32 33 32 31 30 30 29 30 31 29 29 31 30 26 27 33 36 32 33 35 34 29 22 15
9 9 11 9 10 17 18 18 21 25 25 22 22 23 23 22 22 24 28 26 23 25 29 30 28 29 26 27 24 21 20 19
7 5 5 6 6 10 11 11 12 16 18 17 16 14 14 16 18 21 20 21 23 23 21 20 22 19 22 20 17 17 15 14

GFSFLT1_925_spd_090.txt.gz
Wind_Speed
6 6 8 10 11 13 16 22 29 30 30 31 24 26 31 32 34 35 34 32 35 34 31 32 31 28 25 24 21 20 20 18
9 9 11 15 14 15 17 21 30 33 32 31 28 28 33 33 33 30 27 25 26 26 28 27 27 28 27 24 23 23 21 19
9 10 11 14 16 19 22 22 25 33 29 25 22 21 26 28 30 32 29 25 28 30 26 27 28 29 26 26 26 23 19 23
10 10 12 14 16 20 23 26 29 29 31 30 21 24 22 22 23 26 28 33 30 27 27 29 30 29 30 29 29 27 25 25
9 12 14 16 16 18 21 26 26 27 32 31 29 26 24 26 30 29 27 26 27 24 26 27 28 29 30 31 32 32 30 25
12 12 17 18 20 21 22 25 29 31 35 35 31 26 25 28 32 29 29 24 21 22 24 23 24 27 30 31 35 37 35 30
12 17 16 19 21 23 26 26 29 31 35 37 35 33 30 29 31 31 34 31 28 27 28 28 26 29 30 33 37 37 40 36
13 14 16 20 21 23 27 28 29 34 36 36 38 37 37 35 35 35 33 33 33 33 30 30 31 32 33 33 36 39 41 39
15 16 19 24 26 25 24 26 27 31 33 34 34 37 35 35 35 33 34 36 37 37 36 35 37 37 36 36 37 41 39 39
16 15 22 25 26 29 29 30 30 31 34 34 34 34 35 32 34 35 36 38 38 37 37 39 39 38 39 38 38 39 37 39
11 13 22 27 27 29 32 34 35 35 36 35 36 36 37 38 35 35 37 39 39 39 39 39 38 38 37 37 36 35 34 37
13 14 19 21 24 27 30 31 30 30 33 35 37 38 39 38 39 42 40 39 41 42 42 42 43 42 38 35 33 31 29 36
9 6 11 18 23 26 29 30 33 33 35 35 34 34 36 39 42 41 38 41 43 45 42 43 37 38 37 32 32 28 31 38
8 9 11 14 20 23 27 31 36 35 33 33 30 35 33 38 38 37 40 42 44 42 40 35 38 37 39 34 33 37 47 42
6 7 11 15 21 24 25 28 32 32 36 37 33 35 38 36 36 36 38 40 38 38 38 35 39 37 36 36 36 35 34 33
8 9 10 10 18 22 26 29 31 31 32 32 42 34 31 31 34 36 38 37 36 37 36 38 37 33 35 33 34 35 35 32
10 10 9 11 20 25 26 27 28 29 30 33 30 30 31 33 34 36 37 34 33 33 35 36 33 30 34 35 36 34 34 32
10 12 10 7 13 17 19 19 21 26 27 26 26 27 30 32 31 29 30 33 34 34 34 29 28 29 30 31 29 27 24 22
8 6 6 9 7 9 11 10 12 17 18 17 19 20 19 19 20 23 26 26 25 21 19 18 17 15 15 19 20 16 17 17

GFSFLT1_925_spd_093.txt.gz
Wind_Speed
8 5 6 6 7 9 12 13 16 23 25 27 29 29 30 33 33 38 33 43 44 41 37 32 32 27 29 28 25 22 19 19
8 8 8 8 9 10 14 17 20 24 25 23 21 26 31 29 32 30 31 34 39 33 31 31 31 26 28 28 24 22 17 19
10 11 11 12 10 10 13 17 21 23 25 21 22 23 26 22 25 35 34 33 29 29 28 29 29 27 26 27 27 22 16 24
13 13 14 12 14 13 15 19 24 24 25 25 21 19 20 21 28 31 34 34 31 27 29 28 31 28 28 29 28 26 17 25
13 14 16 16 15 13 16 20 28 27 29 27 31 23 22 20 27 30 31 29 31 26 23 26 27 34 29 29 31 31 22 18
16 15 17 16 16 17 20 22 21 23 27 32 31 21 20 20 29 31 31 28 27 27 29 33 34 29 29 31 32 33 34 22
16 18 19 19 17 17 19 23 25 25 24 28 30 26 24 25 28 29 30 31 32 35 36 30 34 31 34 34 32 35 37 37
17 17 18 22 23 22 21 22 22 29 33 30 32 29 24 23 28 25 29 32 29 30 31 33 32 31 31 29 30 33 36 36
19 20 21 24 26 26 25 26 26 26 29 31 32 29 26 25 27 26 26 27 29 28 33 31 30 31 31 31 32 34 34 37
20 20 25 26 27 29 29 28 26 26 28 28 29 31 30 27 26 27 27 28 29 31 34 32 33 34 34 32 34 35 35 39
15 17 24 26 26 26 26 27 26 25 27 29 30 31 32 31 29 29 28 27 28 28 31 32 32 34 32 32 34 35 35 40
15 15 20 22 21 25 26 25 27 28 28 29 30 32 32 33 34 33 32 30 29 28 28 30 33 33 36 35 35 36 39 41
13 13 18 22 24 25 28 28 30 30 31 31 31 31 33 34 37 36 33 36 34 33 29 28 28 31 34 32 36 37 40 40
12 14 15 20 25 27 28 29 31 30 30 30 30 33 36 38 35 31 34 38 33 30 28 29 32 35 39 41 42 39 40 43
10 13 15 19 24 26 27 29 30 29 29 30 31 33 33 30 32 31 31 30 27 27 28 31 34 34 37 37 36 36 37 37
11 11 14 14 21 24 25 26 28 29 30 31 33 27 26 25 27 27 26 25 27 27 29 31 33 32 35 33 32 34 33 35
9 11 13 15 21 24 22 22 23 25 27 28 25 24 22 22 23 23 23 23 23 24 29 31 32 35 38 39 35 29 30 31
11 11 10 7 13 13 14 18 20 22 22 21 19 19 20 19 18 17 18 19 21 25 28 27 27 24 25 26 25 26 23 20
11 4 5 8 6 8 9 9 11 13 12 12 13 14 14 14 13 14 15 15 13 10 8 7 8 9 11 12 15 14 9 9

GFSFLT1_925_spd_099.txt.gz
Wind_Speed
14 11 8 10 10 10 11 12 8 9 9 16 23 30 34 42 38 41 45 44 39 30 23 19 24 23 22 21 20 18 18 16
11 11 11 12 12 12 13 10 10 11 7 4 11 31 37 37 43 43 44 44 42 32 33 26 23 23 22 22 20 19 16 15
11 13 13 14 15 13 15 12 11 10 9 4 6 10 32 33 35 42 46 46 44 37 27 27 25 22 21 20 19 18 15 13
14 13 15 16 16 16 15 15 13 13 14 14 15 23 30 29 31 34 40 42 43 33 26 27 26 22 22 22 20 18 14 13
15 15 15 17 17 16 15 16 15 17 16 19 14 13 14 18 26 27 35 39 37 35 28 26 22 18 22 22 20 18 15 13
15 15 17 17 18 17 17 16 15 17 19 17 20 14 16 24 24 26 30 36 33 32 27 23 21 26 20 20 19 19 17 15
15 16 17 18 18 17 17 17 16 18 20 18 18 19 19 22 23 23 27 28 33 35 28 27 26 23 21 23 20 20 19 18
15 17 15 19 22 20 19 19 18 17 20 20 22 23 23 21 23 24 26 24 26 32 35 31 27 21 18 16 18 23 20 20
17 18 16 20 22 23 21 21 20 20 21 23 25 22 22 23 22 20 23 25 27 30 36 32 28 26 25 21 24 27 25 23
17 19 17 20 22 24 24 24 21 22 23 21 22 24 24 24 26 25 24 24 25 26 35 34 33 33 31 34 28 28 28 26
16 18 17 21 22 22 22 23 24 24 24 22 22 26 25 25 27 28 26 24 26 26 27 30 28 28 29 29 28 26 26 26
15 17 21 22 22 23 23 22 24 24 25 25 24 25 23 24 26 25 24 24 25 25 28 26 27 27 26 26 27 25 27 29
14 17 17 22 23 24 25 24 23 24 25 26 26 25 25 25 25 26 25 26 25 24 24 24 25 26 27 30 31 30 30 30
12 16 18 18 23 24 25 24 24 24 24 25 25 26 26 27 27 27 26 26 26 27 27 27 27 29 29 31 31 32 32 32
11 14 16 17 24 25 25 25 26 25 25 25 25 26 26 25 25 26 27 27 26 27 28 27 28 28 28 28 30 30 29 28
9 12 14 16 20 24 25 26 26 27 26 26 26 25 24 23 23 23 23 25 25 24 23 24 23 24 24 26 26 27 27 28
9 12 14 15 16 21 23 25 27 27 27 27 25 24 23 23 23 22 21 21 21 20 20 20 20 15 22 25 23 22 20 10
13 11 12 12 17 19 21 22 24 25 25 24 24 23 22 21 20 20 20 20 18 10 7 6 4 4 6 7 6 1 2 7
8 7 3 8 15 17 17 19 21 21 21 21 21 20 20 19 16 14 13 12 12 13 13 13 14 15 12 11 8 12 15 16

GFSFLT1_925_spd_102.txt.gz
Wind_Speed
18 16 13 13 10 13 11 11 9 9 8 9 13 14 25 32 38 40 42 39 37 31 33 30 35 36 32 28 26 23 22 20
23 19 17 16 13 11 13 13 12 10 10 11 15 20 25 30 36 43 46 44 42 37 32 26 26 28 21 25 23 23 21 18
17 20 18 19 15 14 14 14 13 10 10 10 11 18 27 31 29 44 45 46 48 41 35 30 23 21 24 23 23 22 19 18
18 16 19 20 16 16 15 14 14 12 9 7 3 12 23 29 34 37 49 50 47 41 28 29 26 20 22 24 25 24 16 18
18 17 16 21 20 17 17 15 17 13 12 9 2 5 12 14 37 34 39 48 43 36 31 31 33 22 28 29 28 23 18 18
20 18 19 21 23 21 17 19 18 15 14 15 10 14 19 25 23 34 38 41 45 42 36 34 34 29 30 29 24 27 18 22
18 19 23 20 24 22 18 18 18 17 17 15 12 16 20 24 26 25 27 33 38 39 39 34 31 29 27 23 30 27 28 22
14 18 16 21 23 22 21 20 18 19 22 18 19 22 24 26 28 27 27 29 32 37 41 36 31 31 27 31 22 28 30 23
13 17 16 21 23 23 23 22 20 22 21 21 21 22 23 25 30 30 30 30 32 35 39 33 31 32 32 22 31 30 26 25
14 17 15 24 25 27 26 25 20 23 23 24 21 22 21 23 24 27 28 26 30 33 34 34 34 31 27 32 26 25 24 26
14 15 16 24 27 27 25 27 25 23 25 24 24 23 22 24 22 25 29 30 27 28 36 38 38 31 34 31 32 31 26 26
14 14 18 22 27 26 28 26 26 27 27 24 25 26 25 26 25 25 25 27 30 30 35 39 39 37 35 33 33 29 28 29
14 15 17 21 25 26 26 26 27 28 30 27 24 25 27 27 26 30 28 28 30 30 31 34 34 33 32 30 29 26 29 30
4 15 17 16 22 25 27 26 25 28 28 29 28 27 25 27 27 26 30 28 27 29 29 31 30 30 31 31 30 30 31 31
7 7 14 15 21 23 25 26 25 27 29 29 29 29 28 26 27 26 24 25 25 26 25 24 24 23 24 27 28 29 30 31
7 10 10 14 17 22 23 26 25 25 25 27 28 29 28 27 28 28 29 27 28 26 25 26 24 24 24 26 23 21 12 6
15 5 12 12 16 22 24 25 28 25 23 23 22 26 27 26 26 27 25 25 23 20 22 19 15 9 8 18 18 10 6 3
19 6 6 11 17 24 24 25 28 28 24 23 23 24 23 24 22 21 21 19 16 14 12 11 12 10 8 2 7 8 12 16
12 5 5 11 19 22 23 26 27 27 24 23 23 23 22 23 22 23 22 22 21 21 20 21 22 21 19 19 20 22 24 24

GFSFLT1_925_spd_105.txt.gz
Wind_Speed
21 30 30 29 26 22 20 16 14 14 15 13 15 23 26 35 41 40 42 45 42 43 37 40 39 40 37 35 29 31 28 26
23 28 31 28 27 24 18 18 18 17 16 17 16 18 26 32 37 39 45 44 43 41 41 42 42 39 40 37 35 32 29 25
16 22 24 27 27 24 19 21 20 18 18 18 17 23 24 29 36 43 46 46 46 43 43 43 42 39 39 38 35 32 29 26
15 16 21 27 26 24 22 22 21 18 17 16 14 15 17 26 28 38 43 48 49 44 43 39 43 40 35 35 35 30 27 24
17 15 16 24 26 24 21 22 21 18 17 16 17 18 18 23 35 35 45 46 48 44 38 38 34 41 36 32 31 29 26 22
21 19 22 25 29 26 22 23 21 20 18 16 9 13 15 24 26 25 36 44 44 46 37 38 36 39 40 36 32 27 21 22
20 19 25 23 28 27 22 23 23 20 19 19 15 17 16 17 23 28 29 40 41 42 37 34 30 30 32 29 25 20 20 21
20 19 16 22 25 28 22 24 22 21 20 20 18 19 20 21 22 29 31 28 34 37 37 36 31 24 23 19 24 26 23 23
20 20 17 23 25 27 23 23 21 21 22 20 21 20 23 22 24 25 28 31 33 36 35 31 29 26 26 26 25 26 25 33
20 18 16 24 26 28 27 24 23 23 23 22 21 23 24 23 22 26 27 30 32 40 39 38 36 29 31 27 28 30 28 29
20 18 18 25 28 28 28 26 22 25 26 26 25 24 23 24 26 25 26 26 29 40 41 38 36 30 32 31 30 32 35 34
19 18 20 27 28 29 28 29 25 26 25 27 27 27 24 24 27 30 29 29 28 31 33 33 31 32 34 33 33 36 31 34
15 18 18 23 26 29 29 29 26 27 25 23 27 27 28 29 28 30 32 32 31 34 35 35 34 33 35 35 38 35 35 33
8 16 18 18 25 28 28 28 26 27 28 26 25 28 29 30 32 31 31 32 33 32 34 36 35 36 37 38 38 35 36 35
10 4 17 17 25 29 29 27 27 30 31 29 26 28 29 29 31 32 35 30 30 32 31 30 31 35 38 38 35 35 32 27
6 9 7 17 19 27 30 31 29 33 30 30 30 29 29 30 30 28 28 31 29 30 30 29 29 26 28 28 28 25 22 16
7 3 5 9 19 27 31 32 33 34 31 30 29 30 32 29 31 31 26 27 27 28 26 23 19 15 14 21 21 15 13 13
17 5 5 3 23 32 30 34 33 31 30 29 28 31 29 29 30 30 28 25 22 21 19 17 14 11 11 12 14 16 18 18
20 17 16 7 32 22 29 33 34 30 28 29 30 32 29 28 26 24 24 25 24 24 22 22 23 21 21 23 24 25 28 26

GFSFLT1_925_spd_108.txt.gz
Wind_Speed
21 26 29 34 35 30 25 23 21 18 13 14 19 20 23 24 31 33 39 42 41 40 40 40 42 39 41 40 36 30 30 27
14 24 30 33 33 30 27 26 22 22 20 18 21 22 26 25 29 38 45 43 44 41 40 43 44 39 45 43 34 30 31 28
14 21 26 31 33 31 29 26 24 22 22 20 17 20 27 32 30 35 38 45 47 44 40 41 45 37 43 42 37 31 27 32
13 15 22 26 29 33 31 28 26 23 20 19 13 17 17 26 28 31 36 40 44 42 44 40 42 42 39 42 38 36 26 34
17 16 16 27 28 32 29 30 27 23 21 21 20 17 13 16 27 32 35 42 44 43 42 42 39 41 39 41 41 38 31 27
20 22 24 26 32 31 30 29 27 24 23 22 21 20 21 22 24 24 37 37 40 40 42 43 40 37 39 37 37 39 32 29
19 15 21 22 27 30 28 28 27 25 24 22 22 20 21 22 25 26 22 41 37 37 36 40 39 37 40 38 37 34 30 21
16 17 17 22 26 28 30 28 25 27 24 23 23 21 22 25 26 25 34 26 35 36 37 38 38 41 39 38 33 28 27 28
21 21 18 22 27 28 28 28 26 28 25 24 21 17 18 16 19 23 27 28 33 38 37 33 39 39 40 36 34 26 23 24
20 18 17 24 27 29 29 29 27 28 26 26 24 17 15 15 17 21 26 29 32 40 40 34 38 37 36 34 28 25 23 24
10 16 17 25 28 27 29 29 27 28 26 26 26 24 22 19 20 22 27 27 29 35 38 41 36 33 29 26 26 25 26 29
7 9 16 22 24 27 29 29 27 26 26 26 26 27 25 22 23 24 27 28 28 31 32 33 32 31 30 30 30 30 31 32
6 7 6 19 24 25 28 28 27 28 27 27 26 28 26 25 22 23 25 27 28 31 31 28 29 27 30 32 32 28 30 32
8 8 10 10 21 24 26 28 27 29 28 28 26 28 29 27 27 27 27 28 28 28 30 28 28 29 31 31 33 33 32 32
5 3 6 7 12 22 25 27 28 30 28 25 27 27 29 29 28 29 29 28 29 29 30 32 32 32 33 35 34 33 31 24
13 3 4 10 10 12 17 26 29 30 29 27 25 27 28 28 28 27 26 28 28 27 28 28 30 30 29 30 30 26 24 20
15 12 5 9 13 16 15 17 28 32 29 28 26 26 28 29 27 29 28 25 23 25 24 23 23 22 25 27 27 24 19 18
14 13 10 14 12 27 24 18 18 27 28 29 28 29 27 29 28 26 25 26 24 23 21 21 17 14 15 20 22 20 20 19
11 11 11 16 16 15 23 23 21 20 24 28 28 28 26 28 26 26 25 27 26 25 22 20 20 18 22 25 24 25 27 26

GFSFLT1_925_spd_111.txt.gz
Wind_Speed
14 17 25 29 34 35 34 31 28 24 21 21 22 17 15 13 16 31 34 30 39 39 38 38 39 41 41 40 37 35 28 26
15 13 23 22 31 35 36 33 30 26 22 19 18 18 17 14 13 30 34 35 40 40 39 40 39 41 43 43 38 37 27 26
7 10 22 33 29 34 36 34 32 29 25 20 14 19 19 17 20 29 34 36 39 36 36 37 40 37 42 40 34 32 28 31
9 9 16 22 30 35 37 35 33 29 25 22 17 19 18 17 23 25 33 38 39 37 38 39 40 38 41 43 38 32 24 34
9 11 11 23 28 30 33 34 32 29 27 25 26 16 17 16 21 25 26 33 36 38 40 40 43 40 38 37 38 37 31 27
11 15 19 21 23 30 31 31 30 29 27 27 26 26 19 21 24 25 28 28 38 39 36 36 36 38 36 41 34 34 34 30
11 14 18 18 20 23 30 30 30 28 28 26 26 23 21 18 21 24 28 31 35 39 40 40 39 35 35 37 38 37 36 34
13 11 15 21 26 26 26 29 26 27 29 28 26 24 21 22 25 26 23 28 31 44 41 38 38 39 39 38 38 37 37 34
22 14 18 21 27 27 26 28 25 28 29 27 25 22 21 22 24 26 26 29 25 38 43 41 37 37 42 38 35 36 32 31
24 6 11 20 27 29 30 27 25 26 29 28 25 23 21 23 23 25 29 32 32 33 43 40 39 39 39 36 31 34 29 27
21 2 6 15 21 26 26 27 26 26 27 26 26 24 21 19 17 19 20 23 28 34 35 38 39 37 39 39 34 33 28 27
21 13 7 12 12 17 24 25 25 27 27 26 25 24 20 18 17 19 20 23 29 28 34 33 37 39 39 35 33 34 31 25
20 18 7 12 9 11 17 22 25 27 27 25 24 23 22 18 18 20 20 22 26 32 28 30 33 36 39 37 33 26 26 25
21 17 5 6 15 11 12 16 19 26 26 25 23 22 22 21 18 19 20 22 23 25 29 26 27 27 29 31 30 29 28 27
13 12 6 7 13 17 16 15 19 20 26 25 22 22 24 23 21 18 19 20 22 24 27 28 30 28 29 29 27 26 21 18
15 13 6 5 11 16 18 19 19 19 19 23 22 24 26 24 20 19 19 20 22 24 24 25 23 24 25 26 25 22 20 16
14 12 10 8 8 10 17 21 25 22 19 17 17 21 27 26 23 22 22 20 18 19 19 20 20 21 22 22 24 21 20 19
14 13 14 14 16 13 15 20 21 27 23 18 16 19 22 25 25 23 22 23 21 20 19 20 18 17 19 21 22 21 23 23
12 10 11 20 20 13 13 20 23 23 20 22 19 21 19 21 22 23 23 22 22 21 19 18 19 18 18 20 22 25 26 26

GFSFLT1_925_spd_117.txt.gz
Wind_Speed
19 22 23 23 27 29 24 26 28 32 34 32 27 23 23 23 26 28 32 32 39 43 39 40 42 38 34 34 32 26 26 24
18 22 20 21 20 16 19 23 26 31 31 28 25 23 23 24 25 24 28 32 37 40 35 43 43 42 40 36 34 30 23 23
14 20 20 16 15 12 16 20 26 30 29 26 18 21 20 21 22 23 26 31 35 35 39 45 45 41 36 39 37 30 24 26
14 17 23 19 13 14 16 19 22 26 25 23 15 15 12 19 22 23 23 27 26 29 34 42 43 43 41 40 36 33 25 26
14 17 20 26 18 13 14 18 23 26 27 23 22 18 13 14 18 19 20 18 25 33 37 43 42 40 38 38 36 36 33 29
14 16 21 29 13 11 15 19 23 26 31 27 23 19 17 13 16 19 19 23 29 34 39 41 41 37 39 39 34 33 31 30
12 16 21 25 12 6 12 17 21 24 25 26 25 24 21 17 19 21 24 23 27 30 30 34 40 36 38 38 38 36 34 32
15 15 16 22 16 8 11 16 20 24 24 22 24 24 20 21 20 21 21 24 24 29 30 29 29 33 36 36 36 36 36 34
15 15 15 21 19 10 12 16 19 21 23 19 18 20 18 18 23 20 25 20 26 30 34 33 34 32 32 37 35 35 35 34
16 17 19 25 22 16 17 18 19 21 21 20 18 18 22 20 20 24 21 23 25 23 34 33 34 37 35 35 34 34 35 35
13 14 20 27 28 16 14 20 20 22 22 22 20 19 17 19 19 18 18 21 21 26 30 30 36 37 38 38 34 34 37 35
13 13 20 29 33 13 11 16 19 22 23 23 20 18 19 19 18 17 15 17 17 19 25 29 35 44 42 40 36 34 36 35
11 11 15 24 27 23 14 18 18 23 24 23 21 20 20 18 19 14 12 14 17 20 24 30 35 33 43 45 40 39 39 36
9 13 15 15 25 27 13 17 20 20 22 23 20 20 21 19 17 14 11 10 10 12 18 22 23 34 37 41 43 42 41 38
8 10 11 15 20 22 24 12 17 21 19 22 22 20 21 21 18 13 12 8 9 11 12 17 15 22 27 32 34 40 37 35
7 7 9 10 18 22 23 13 19 20 21 21 20 18 21 22 19 15 12 10 9 9 10 11 14 17 26 26 28 31 34 35
7 8 9 10 17 20 22 20 14 22 20 20 21 22 21 21 21 17 14 12 10 11 13 13 15 14 22 28 35 33 35 35
9 10 11 13 16 18 20 20 20 20 22 20 21 24 23 22 22 19 15 15 14 14 14 15 14 15 16 25 35 36 32 29
9 9 13 17 19 20 23 21 17 16 22 22 22 24 24 24 23 23 20 21 20 18 18 17 18 20 21 25 29 31 33 30

GFSFLT1_925_spd_120.txt.gz
Wind_Speed
7 10 11 12 14 18 21 22 21 23 24 28 26 25 25 23 28 24 23 28 36 36 32 34 37 37 36 36 34 30 30 27
9 8 11 12 13 13 15 17 18 22 26 29 26 25 23 22 22 23 24 24 32 36 34 35 41 40 38 41 37 33 30 28
8 13 15 15 17 14 13 13 17 22 24 26 20 21 19 20 19 20 22 23 31 34 34 34 42 39 40 39 38 32 31 32
8 12 14 15 17 15 13 11 13 20 22 23 21 20 13 16 21 23 25 25 26 28 33 30 41 43 40 40 40 36 31 31
7 10 13 15 18 13 9 9 11 19 23 24 26 24 20 19 21 22 22 23 24 27 33 35 38 42 41 45 40 38 35 32
8 10 12 14 17 15 9 7 10 17 22 25 25 21 16 14 18 19 20 22 22 21 27 32 42 43 44 43 40 37 35 33
9 12 13 15 17 13 10 7 10 15 22 23 22 18 14 14 17 17 17 19 17 21 27 33 39 36 41 41 40 38 33 32
10 13 13 16 19 16 9 7 11 13 20 20 20 17 17 17 16 17 18 20 21 25 29 33 33 36 39 38 38 37 34 32
11 12 12 17 20 20 15 9 13 15 20 20 20 20 18 19 17 16 20 19 21 27 29 31 33 35 41 36 36 36 34 33
10 11 12 15 18 23 18 9 11 16 20 20 21 20 19 19 17 17 17 21 23 22 28 27 31 36 37 35 31 32 32 32
9 9 11 16 17 16 22 11 11 15 18 22 22 22 22 19 16 16 15 18 18 27 30 30 30 31 38 37 29 30 31 31
8 8 13 17 15 17 16 17 13 14 19 24 23 22 21 20 18 16 14 15 17 19 26 30 31 33 34 34 36 32 33 32
7 7 10 14 15 16 20 21 17 17 20 23 22 20 21 20 19 17 14 13 13 16 18 21 26 36 38 36 35 33 36 34
8 8 8 9 12 17 18 19 28 18 22 23 21 20 20 20 19 16 12 11 11 14 18 19 21 24 27 40 42 39 38 36
8 9 8 9 12 14 17 19 25 16 20 21 19 20 20 20 19 15 13 11 10 12 13 13 13 17 24 39 42 40 39 40
8 7 9 10 15 15 14 16 24 23 20 21 19 19 19 19 19 15 14 11 8 9 8 7 8 10 16 31 32 34 31 28
7 8 10 11 15 16 17 15 22 27 19 21 21 20 20 20 19 16 14 13 10 10 8 8 6 7 13 20 27 27 29 33
8 10 10 13 16 16 17 17 21 22 17 20 21 21 20 21 20 18 17 17 15 14 14 14 15 16 16 24 27 31 36 33
8 9 12 16 18 18 22 18 20 19 21 19 22 22 20 21 21 20 23 22 21 20 18 19 21 23 21 31 36 35 35 33

GFSFLT1_925_spd_123.txt.gz
Wind_Speed
14 10 5 7 11 14 17 20 20 20 22 24 26 26 30 33 30 27 23 29 27 28 28 31 30 30 32 32 32 26 24 25
15 8 5 8 10 13 18 18 20 22 24 26 27 28 24 26 29 30 24 27 27 29 29 32 33 33 36 40 38 32 26 28
8 3 5 6 9 12 13 17 17 21 24 25 25 26 19 25 22 25 26 24 25 31 28 30 35 32 37 39 38 30 27 28
4 4 4 4 6 9 12 13 14 17 21 18 14 18 15 23 26 24 25 23 25 25 32 34 34 35 34 40 42 39 30 31
3 3 4 5 8 10 11 9 10 13 18 20 24 21 17 18 19 23 22 22 24 25 26 30 32 37 36 41 45 46 32 29
1 3 6 7 9 10 10 9 7 8 16 14 22 19 23 22 23 23 23 23 25 24 26 26 33 37 38 45 42 45 40 33
2 3 6 7 8 11 10 8 6 9 14 18 22 24 23 20 17 18 21 21 22 21 22 28 32 36 37 43 46 45 41 36
1 4 6 9 10 13 13 8 6 9 12 16 20 24 22 16 17 20 20 19 19 19 20 25 28 34 31 39 40 43 43 36
1 4 6 8 10 11 16 14 5 7 12 14 20 18 18 18 19 18 18 19 20 19 22 24 25 32 33 40 43 41 43 34
4 4 5 8 12 12 12 15 9 4 11 13 18 20 19 18 16 19 18 19 18 21 23 26 27 32 33 33 32 35 34 38
4 5 5 10 13 13 12 13 13 10 10 15 17 22 20 16 18 18 18 17 20 24 23 26 27 31 34 32 30 34 34 35
6 6 7 8 12 14 13 14 15 12 9 13 15 20 25 21 19 19 17 18 18 20 26 28 29 30 33 35 29 35 32 30
11 7 9 7 10 13 15 14 16 14 14 12 16 22 21 20 18 17 15 15 15 17 25 28 30 32 35 36 33 31 32 29
12 10 8 7 7 13 15 14 16 15 15 14 17 20 21 21 22 20 20 17 15 18 20 20 24 29 33 36 37 36 35 32
12 11 9 8 7 10 13 17 19 19 16 15 17 18 20 20 19 20 19 16 15 14 14 15 16 26 32 33 33 34 37 38
12 8 7 11 12 14 15 16 19 19 17 14 18 19 21 19 19 21 18 16 15 12 12 13 13 17 23 29 35 38 39 36
10 8 11 10 13 15 16 18 19 22 19 13 16 20 21 20 23 22 21 18 13 12 11 12 11 13 17 20 26 32 31 33
9 10 9 11 14 15 17 21 20 20 20 15 18 21 19 23 24 22 19 16 17 17 14 13 10 9 14 18 21 27 31 32
9 9 12 14 15 16 18 20 20 19 20 15 18 21 24 22 23 22 20 21 21 20 17 16 16 17 19 24 28 30 31 29